DL9MFL-6 Weather Reports


Display with metric or nautical units.
time (UTC)temp
F
wind
direction
speed
MPH
gust
MPH
rain 1hr
in
rain 24hr
in
rain mn
in
humidity
%
barometer
mb
20260506215148 49 292 5.0 9.0 0.00 0.01 0.01 82 1007.9
20260506215144 49 264 5.0 9.0 0.00 0.01 0.01 82 1007.8
20260506215140 49 269 5.0 10.0 0.00 0.01 0.01 82 1007.8
20260506214829 49 250 5.0 10.0 0.00 0.01 0.01 82 1007.8
20260506214729 49 258 5.0 10.0 0.00 0.01 0.01 82 1007.8
20260506214628 49 212 5.0 10.0 0.00 0.01 0.01 82 1007.8
20260506214528 49 266 5.0 11.0 0.00 0.01 0.01 82 1007.8
20260506214429 49 244 5.0 11.0 0.00 0.01 0.01 82 1007.8
20260506214329 49 274 5.0 11.0 0.00 0.01 0.01 82 1007.8
20260506214229 49 225 5.0 11.0 0.00 0.01 0.01 82 1007.8
20260506214129 49 228 6.0 11.0 0.00 0.01 0.01 82 1007.8
20260506214029 49 240 6.0 11.0 0.00 0.01 0.01 82 1007.7
20260506213929 49 257 6.0 11.0 0.00 0.01 0.01 82 1007.8
20260506213829 49 261 6.0 11.0 0.00 0.01 0.01 82 1007.7
20260506213728 49 288 6.0 11.0 0.00 0.01 0.01 82 1007.7
20260506213628 49 230 6.0 12.0 0.00 0.01 0.01 82 1007.8
20260506213528 49 221 6.0 12.0 0.00 0.01 0.01 82 1007.8
20260506213428 49 234 6.0 12.0 0.00 0.01 0.01 82 1007.7
20260506213330 49 226 6.0 12.0 0.00 0.01 0.01 82 1007.7
20260506213229 49 279 6.0 12.0 0.00 0.01 0.01 82 1007.7
20260506213129 49 240 6.0 12.0 0.00 0.01 0.01 82 1007.8
20260506213029 49 226 6.0 12.0 0.00 0.01 0.01 82 1007.7
20260506212928 49 259 6.0 12.0 0.00 0.01 0.01 82 1007.7
20260506212829 49 233 6.0 13.0 0.00 0.01 0.01 82 1007.7
20260506212729 49 267 5.0 13.0 0.00 0.01 0.01 82 1007.7
20260506212629 49 243 5.0 13.0 0.00 0.01 0.01 82 1007.7
20260506212529 49 220 5.0 13.0 0.00 0.01 0.01 82 1007.7
20260506212429 49 259 5.0 13.0 0.00 0.01 0.01 82 1007.7
20260506212329 49 248 5.0 13.0 0.00 0.01 0.01 82 1007.7
20260506212229 49 218 5.0 13.0 0.00 0.01 0.01 82 1007.6
20260506212129 49 240 5.0 13.0 0.00 0.01 0.01 82 1007.6
20260506212029 49 265 5.0 13.0 0.00 0.01 0.01 82 1007.7
20260506211930 49 270 5.0 13.0 0.00 0.01 0.01 82 1007.8
20260506211829 49 264 5.0 11.0 0.00 0.01 0.01 82 1007.7
20260506211733 49 268 5.0 11.0 0.00 0.01 0.01 82 1007.8
20260506211629 49 267 5.0 11.0 0.00 0.01 0.01 82 1007.7
20260506211529 49 224 5.0 11.0 0.00 0.01 0.01 82 1007.7
20260506211429 49 256 5.0 11.0 0.00 0.01 0.01 82 1007.7
20260506211329 49 254 5.0 11.0 0.00 0.01 0.01 82 1007.7
20260506211230 49 257 5.0 11.0 0.00 0.01 0.01 82 1007.7
20260506211029 49 232 5.0 10.0 0.00 0.01 0.01 82 1007.7
20260506210929 49 235 4.0 10.0 0.00 0.01 0.01 82 1007.8
20260506210829 49 254 5.0 10.0 0.00 0.01 0.01 82 1007.8
20260506210729 49 254 5.0 10.0 0.00 0.01 0.01 82 1007.7
20260506210629 49 238 5.0 10.0 0.00 0.01 0.01 82 1007.7
20260506210529 49 250 5.0 10.0 0.00 0.01 0.01 82 1007.9
20260506210428 49 250 5.0 10.0 0.00 0.01 0.01 82 1007.8
20260506210328 49 274 5.0 14.0 0.00 0.01 0.01 82 1007.8
20260506210228 49 262 6.0 14.0 0.00 0.01 0.01 82 1007.8
20260506210128 49 227 6.0 14.0 0.00 0.01 0.01 82 1007.8
20260506210028 49 243 6.0 14.0 0.00 0.01 0.01 82 1007.7
20260506205928 49 223 6.0 14.0 0.00 0.01 0.01 82 1007.7
20260506205829 49 236 6.0 14.0 0.00 0.01 0.01 82 1007.7
20260506205729 49 280 6.0 14.0 0.00 0.01 0.01 82 1007.7
20260506205629 49 277 7.0 14.0 0.00 0.01 0.01 82 1007.7
20260506205528 49 262 7.0 14.0 0.00 0.01 0.01 82 1007.7
20260506205429 49 273 7.0 14.0 0.00 0.01 0.01 82 1007.7
20260506205329 49 246 7.0 14.0 0.00 0.01 0.01 82 1007.7
20260506205229 49 235 7.0 14.0 0.00 0.01 0.01 82 1007.7
20260506205129 49 225 6.0 14.0 0.00 0.01 0.01 82 1007.7
20260506205029 49 273 6.0 12.0 0.00 0.01 0.01 82 1007.6
20260506204929 49 230 6.0 12.0 0.00 0.01 0.01 82 1007.7
20260506204828 49 232 6.0 12.0 0.00 0.01 0.01 82 1007.7
20260506204729 49 248 6.0 12.0 0.00 0.01 0.01 82 1007.7
20260506204629 49 247 6.0 12.0 0.00 0.01 0.01 82 1007.7
20260506204530 49 220 6.0 12.0 0.00 0.01 0.01 82 1007.8
20260506204429 49 257 6.0 15.0 0.00 0.01 0.01 82 1007.7
20260506204329 49 244 6.0 15.0 0.00 0.01 0.01 82 1007.6
20260506204229 49 248 6.0 15.0 0.00 0.01 0.01 82 1007.6
20260506204129 49 271 6.0 15.0 0.00 0.01 0.01 82 1007.5
20260506204029 49 257 6.0 15.0 0.00 0.01 0.01 82 1007.6
20260506203928 49 279 6.0 15.0 0.00 0.01 0.01 82 1007.5
20260506203828 49 242 6.0 15.0 0.00 0.01 0.01 82 1007.5
20260506203728 49 263 6.0 15.0 0.00 0.01 0.01 82 1007.5
20260506203649 49 217 6.0 15.0 0.00 0.01 0.01 82 1007.5
20260506203645 49 215 6.0 15.0 0.00 0.01 0.01 82 1007.5
20260506203641 49 229 6.0 13.0 0.00 0.01 0.01 82 1007.5
20260506203329 49 276 6.0 13.0 0.00 0.01 0.01 82 1007.5
20260506203228 49 252 6.0 13.0 0.00 0.01 0.01 81 1007.4
20260506203128 49 236 6.0 13.0 0.00 0.01 0.01 81 1007.5
20260506203028 49 221 6.0 11.0 0.00 0.01 0.01 81 1007.4
20260506202929 49 236 6.0 11.0 0.00 0.01 0.01 81 1007.5
20260506202829 49 240 6.0 11.0 0.00 0.01 0.01 81 1007.4
20260506202729 49 284 6.0 11.0 0.00 0.01 0.01 81 1007.5
20260506202629 49 290 6.0 11.0 0.00 0.01 0.01 81 1007.4
20260506202529 49 253 7.0 11.0 0.00 0.01 0.01 81 1007.5
20260506202429 49 266 7.0 11.0 0.00 0.01 0.01 81 1007.5
20260506202329 49 247 6.0 11.0 0.00 0.01 0.01 82 1007.5
20260506202228 49 217 6.0 11.0 0.00 0.01 0.01 82 1007.4
20260506202129 49 271 6.0 11.0 0.00 0.01 0.01 82 1007.4
20260506202029 49 260 6.0 11.0 0.00 0.01 0.01 82 1007.4
20260506201929 49 256 6.0 11.0 0.00 0.01 0.01 82 1007.4
20260506201829 49 241 6.0 11.0 0.00 0.01 0.01 82 1007.4
20260506201729 49 275 6.0 11.0 0.00 0.01 0.01 82 1007.4
20260506201649 49 234 5.0 11.0 0.00 0.01 0.01 82 1007.4
20260506201645 49 241 5.0 11.0 0.00 0.01 0.01 81 1007.4
20260506201641 49 265 5.0 11.0 0.00 0.01 0.01 81 1007.4
20260506201329 49 279 5.0 11.0 0.00 0.01 0.01 82 1007.3
20260506201229 49 239 5.0 11.0 0.00 0.01 0.01 81 1007.3
20260506201129 49 225 5.0 11.0 0.00 0.01 0.01 81 1007.3
20260506201029 49 244 5.0 9.0 0.00 0.01 0.01 81 1007.4
20260506200928 49 261 5.0 9.0 0.00 0.01 0.01 82 1007.3
20260506200829 49 286 5.0 9.0 0.00 0.01 0.01 82 1007.3
20260506200728 49 272 5.0 9.0 0.00 0.01 0.01 81 1007.3
20260506200628 49 232 5.0 9.0 0.00 0.01 0.01 81 1007.3
20260506200528 49 249 5.0 9.0 0.00 0.01 0.01 81 1007.3
20260506200430 49 249 5.0 10.0 0.00 0.01 0.01 81 1007.3
20260506200426 49 248 5.0 10.0 0.00 0.01 0.01 81 1007.3
20260506200329 49 244 5.0 10.0 0.00 0.01 0.01 81 1007.2
20260506200229 49 210 5.0 10.0 0.00 0.01 0.01 81 1007.2
20260506200128 49 277 5.0 10.0 0.00 0.01 0.01 81 1007.3
20260506200029 49 236 5.0 10.0 0.00 0.01 0.01 81 1007.2
20260506195921 49 252 6.0 10.0 0.00 0.01 0.01 81 1007.2
20260506195829 49 271 6.0 10.0 0.00 0.01 0.01 81 1007.1
20260506195729 49 302 6.0 10.0 0.00 0.01 0.01 81 1007.1
20260506195630 49 232 6.0 10.0 0.00 0.01 0.01 81 1007.2
20260506195529 49 246 6.0 11.0 0.00 0.01 0.01 81 1007.3
20260506195429 49 276 6.0 11.0 0.00 0.01 0.01 81 1007.2
20260506195415 49 290 6.0 11.0 0.00 0.01 0.01 81 1007.2
20260506195329 49 267 6.0 11.0 0.00 0.01 0.01 81 1007.3
20260506195229 49 271 6.0 11.0 0.00 0.01 0.01 81 1007.3
20260506195127 49 242 6.0 11.0 0.00 0.01 0.01 81 1007.2
20260506195027 49 286 6.0 11.0 0.00 0.01 0.01 81 1007.3
20260506194927 50 252 6.0 11.0 0.00 0.01 0.01 81 1007.3
20260506194908 49 296 6.0 11.0 0.00 0.01 0.01 81 1007.3
20260506194826 50 267 6.0 11.0 0.00 0.01 0.01 81 1007.3
20260506194726 50 266 6.0 11.0 0.00 0.01 0.01 81 1007.2
20260506194621 50 229 5.0 11.0 0.00 0.01 0.01 81 1007.3
20260506194521 50 283 5.0 10.0 0.00 0.01 0.01 81 1007.2
20260506194421 50 281 5.0 10.0 0.00 0.01 0.01 81 1007.2
20260506194402 50 247 5.0 10.0 0.00 0.01 0.01 81 1007.2
20260506194320 50 265 5.0 10.0 0.00 0.01 0.01 81 1007.2
20260506194220 50 261 5.0 9.0 0.00 0.01 0.01 81 1007.2
20260506194128 50 253 5.0 9.0 0.00 0.01 0.01 81 1007.2
20260506194123 50 275 5.0 9.0 0.00 0.01 0.01 81 1007.2
20260506194119 50 228 5.0 9.0 0.00 0.01 0.01 81 1007.2
20260506194115 50 272 5.0 9.0 0.00 0.01 0.01 81 1007.2
20260506193817 50 234 6.0 10.0 0.00 0.01 0.01 81 1007.2
20260506193715 50 247 6.0 10.0 0.00 0.01 0.01 81 1007.2
20260506193608 50 269 6.0 11.0 0.00 0.01 0.01 80 1007.1
20260506193508 50 271 6.0 11.0 0.00 0.01 0.01 80 1007.1
20260506193409 50 285 6.0 11.0 0.00 0.01 0.01 80 1007.1
20260506193403 50 249 6.0 11.0 0.00 0.01 0.01 80 1007.1
20260506193309 50 246 6.0 11.0 0.00 0.01 0.01 80 1007.1
20260506193209 50 280 6.0 11.0 0.00 0.01 0.01 80 1007.0
20260506193103 50 239 6.0 12.0 0.00 0.01 0.01 80 1007.0
20260506193003 50 304 6.0 12.0 0.00 0.01 0.01 80 1007.0
20260506192901 50 282 6.0 12.0 0.00 0.01 0.01 80 1007.0
20260506192801 50 288 6.0 12.0 0.00 0.01 0.01 80 1007.0
20260506192701 50 246 6.0 12.0 0.00 0.01 0.01 80 1007.1
20260506192601 50 273 6.0 12.0 0.00 0.01 0.01 80 1007.1
20260506192501 50 262 6.0 12.0 0.00 0.01 0.01 80 1007.0
20260506192401 50 270 6.0 12.0 0.00 0.01 0.01 80 1007.1
20260506192301 50 275 6.0 12.0 0.00 0.01 0.01 80 1007.0
20260506192202 50 248 6.0 12.0 0.00 0.01 0.01 80 1007.0
20260506192100 50 265 6.0 12.0 0.00 0.01 0.01 80 1007.0
20260506192001 50 242 6.0 12.0 0.00 0.01 0.01 80 1007.0
20260506191901 50 233 5.0 11.0 0.00 0.01 0.01 80 1007.1
20260506191801 50 263 5.0 10.0 0.00 0.01 0.01 80 1007.0
20260506191701 50 276 5.0 10.0 0.00 0.01 0.01 80 1007.0
20260506191601 50 248 5.0 10.0 0.00 0.01 0.01 80 1007.0
20260506191500 50 227 6.0 10.0 0.00 0.01 0.01 80 1007.0
20260506191400 50 230 6.0 10.0 0.00 0.01 0.01 80 1007.0
20260506191301 50 244 6.0 10.0 0.00 0.01 0.01 80 1007.0
20260506191101 50 262 6.0 12.0 0.00 0.01 0.01 80 1007.1
20260506191001 50 274 6.0 12.0 0.00 0.01 0.01 79 1007.0
20260506190901 50 269 6.0 12.0 0.00 0.01 0.01 79 1007.0
20260506190801 50 277 6.0 12.0 0.00 0.01 0.01 79 1007.0
20260506190700 51 265 6.0 12.0 0.00 0.01 0.01 79 1007.0
20260506190600 51 218 6.0 12.0 0.00 0.01 0.01 79 1007.0
20260506190500 50 201 6.0 12.0 0.00 0.01 0.01 79 1007.0
20260506190400 51 254 6.0 12.0 0.00 0.01 0.01 79 1007.1
20260506190301 51 217 6.0 12.0 0.00 0.01 0.01 79 1007.0
20260506190201 51 236 6.0 12.0 0.00 0.01 0.01 79 1007.0
20260506190100 51 211 6.0 11.0 0.00 0.01 0.01 79 1006.9
20260506190001 51 223 6.0 11.0 0.00 0.01 0.01 80 1006.9
20260506185901 51 238 6.0 11.0 0.00 0.01 0.01 80 1006.8
20260506185801 51 226 6.0 11.0 0.00 0.01 0.01 80 1006.9
20260506185701 51 249 6.0 11.0 0.00 0.01 0.01 79 1006.8
20260506185601 51 277 5.0 10.0 0.00 0.01 0.01 79 1006.8
20260506185501 51 240 5.0 10.0 0.00 0.01 0.01 79 1006.8
20260506185400 51 222 5.0 9.0 0.00 0.01 0.01 80 1006.8
20260506185301 51 280 5.0 8.0 0.00 0.01 0.01 79 1006.8
20260506185200 51 221 5.0 8.0 0.00 0.01 0.01 80 1006.8
20260506185100 51 238 5.0 8.0 0.00 0.01 0.01 79 1006.8
20260506185001 51 244 5.0 9.0 0.00 0.01 0.01 79 1006.8
20260506184901 51 245 5.0 9.0 0.00 0.01 0.01 79 1006.8
20260506184801 51 253 5.0 9.0 0.00 0.01 0.01 79 1006.9
20260506184701 51 296 5.0 11.0 0.00 0.01 0.01 79 1006.8
20260506184601 51 250 5.0 11.0 0.00 0.01 0.01 79 1006.8
20260506184501 51 285 5.0 11.0 0.00 0.01 0.01 79 1006.8
20260506184400 51 209 5.0 11.0 0.00 0.01 0.01 79 1006.9
20260506184300 51 260 6.0 11.0 0.00 0.01 0.01 79 1006.9
20260506184201 51 223 6.0 11.0 0.00 0.01 0.01 79 1006.8
20260506184101 51 257 6.0 11.0 0.00 0.01 0.01 79 1006.9
20260506184000 51 227 6.0 11.0 0.00 0.01 0.01 79 1006.9
20260506183900 51 284 6.0 11.0 0.00 0.01 0.01 79 1006.8
20260506183800 51 246 6.0 11.0 0.00 0.01 0.01 79 1006.9
20260506183700 51 248 6.0 11.0 0.00 0.01 0.01 78 1006.7
20260506183601 51 236 6.0 11.0 0.00 0.01 0.01 78 1006.9
20260506183501 51 273 6.0 11.0 0.00 0.01 0.01 79 1006.9
20260506183401 51 277 6.0 11.0 0.00 0.01 0.01 78 1006.8
20260506183301 51 239 6.0 12.0 0.00 0.01 0.01 78 1006.8
20260506183201 51 256 6.0 12.0 0.00 0.01 0.01 79 1006.8
20260506183101 51 271 6.0 12.0 0.00 0.01 0.01 79 1006.8
20260506183000 51 271 6.0 12.0 0.00 0.01 0.01 79 1006.8
20260506182900 51 260 6.0 12.0 0.00 0.01 0.01 78 1006.8
20260506182800 51 264 6.0 12.0 0.00 0.01 0.01 78 1006.7
20260506182700 51 254 6.0 12.0 0.00 0.01 0.01 78 1006.7
20260506182601 51 229 6.0 12.0 0.00 0.01 0.01 78 1006.8
20260506182501 51 262 7.0 13.0 0.00 0.01 0.01 78 1006.7
20260506182401 51 270 7.0 13.0 0.00 0.01 0.01 78 1006.7
20260506182301 51 266 7.0 13.0 0.00 0.01 0.01 78 1006.7
20260506182200 51 238 7.0 13.0 0.00 0.01 0.01 78 1006.7
20260506182101 51 263 7.0 13.0 0.00 0.01 0.01 78 1006.7
20260506182001 51 274 7.0 13.0 0.00 0.01 0.01 79 1006.5
20260506181900 51 255 7.0 13.0 0.00 0.01 0.01 78 1006.7
20260506181800 51 226 7.0 13.0 0.00 0.01 0.01 78 1006.7
20260506181700 51 275 7.0 13.0 0.00 0.01 0.01 78 1006.5
20260506181600 51 223 7.0 13.0 0.00 0.01 0.01 78 1006.4
20260506181501 51 227 6.0 13.0 0.00 0.01 0.01 78 1006.4
20260506181401 51 253 6.0 13.0 0.00 0.01 0.01 78 1006.4
20260506181301 51 236 6.0 12.0 0.00 0.01 0.01 78 1006.4
20260506181201 51 274 6.0 12.0 0.00 0.01 0.01 78 1006.4
20260506181107 52 229 6.0 12.0 0.00 0.01 0.01 78 1006.3
20260506181000 52 281 5.0 12.0 0.00 0.01 0.01 78 1006.3
20260506180901 52 271 5.0 12.0 0.00 0.01 0.01 78 1006.3
20260506180801 52 250 5.0 12.0 0.00 0.01 0.01 78 1006.4
20260506180701 52 273 5.0 11.0 0.00 0.01 0.01 78 1006.3
20260506180603 52 242 5.0 11.0 0.00 0.01 0.01 78 1006.3
20260506180500 52 252 5.0 11.0 0.00 0.01 0.01 78 1006.3
20260506180400 52 277 5.0 11.0 0.00 0.01 0.01 78 1006.3
20260506180300 52 243 5.0 11.0 0.00 0.01 0.01 78 1006.3
20260506180200 52 240 5.0 11.0 0.00 0.01 0.01 78 1006.2
20260506180124 52 243 5.0 11.0 0.00 0.01 0.01 78 1006.3
20260506180116 52 248 5.0 11.0 0.00 0.01 0.01 78 1006.3
20260506180112 52 270 5.0 11.0 0.00 0.01 0.01 78 1006.2
20260506175800 52 272 5.0 10.0 0.00 0.01 0.01 78 1006.2
20260506175701 52 248 5.0 10.0 0.00 0.01 0.01 78 1006.2
20260506175624 52 244 6.0 11.0 0.00 0.01 0.01 78 1006.2
20260506175615 52 243 6.0 13.0 0.00 0.01 0.01 78 1006.2
20260506175611 52 256 7.0 13.0 0.00 0.01 0.01 78 1006.2
20260506175300 52 238 7.0 13.0 0.00 0.01 0.01 78 1006.2
20260506175200 52 242 7.0 13.0 0.00 0.01 0.01 78 1006.1
20260506175101 52 273 7.0 13.0 0.00 0.01 0.01 78 1006.1
20260506175001 52 258 7.0 13.0 0.00 0.01 0.01 78 1006.0
20260506174900 52 216 7.0 13.0 0.00 0.01 0.01 78 1006.0
20260506174800 52 255 7.0 13.0 0.00 0.01 0.01 78 1006.1
20260506174700 52 263 7.0 13.0 0.00 0.01 0.01 78 1006.1
20260506174623 52 272 7.0 13.0 0.00 0.01 0.01 78 1006.1
20260506174615 52 288 6.0 11.0 0.00 0.01 0.01 78 1006.0
20260506174611 52 232 6.0 11.0 0.00 0.01 0.01 78 1006.1
20260506174300 52 218 6.0 10.0 0.00 0.01 0.01 79 1006.0
20260506174200 52 267 6.0 10.0 0.00 0.01 0.01 79 1005.9
20260506174100 52 272 6.0 10.0 0.00 0.01 0.01 78 1005.9
20260506174001 52 214 6.0 10.0 0.00 0.01 0.01 78 1005.9
20260506173901 52 267 6.0 11.0 0.00 0.01 0.01 79 1005.8
20260506173801 52 241 6.0 11.0 0.00 0.01 0.01 78 1005.8
20260506173700 52 273 6.0 11.0 0.00 0.01 0.01 78 1005.7
20260506173600 52 244 6.0 11.0 0.00 0.01 0.01 78 1005.5
20260506173500 52 280 6.0 12.0 0.00 0.01 0.01 78 1005.5
20260506173400 52 255 6.0 12.0 0.00 0.01 0.01 78 1005.5
20260506173300 52 278 6.0 12.0 0.00 0.01 0.01 78 1005.5
20260506173200 52 259 7.0 13.0 0.00 0.01 0.01 78 1005.4
20260506173101 51 258 7.0 14.0 0.00 0.01 0.01 78 1005.5
20260506173000 52 246 8.0 14.0 0.00 0.01 0.01 78 1005.5
20260506172901 52 240 8.0 14.0 0.00 0.01 0.01 78 1005.4
20260506172801 52 230 9.0 15.0 0.00 0.01 0.01 78 1005.5
20260506172701 52 250 9.0 15.0 0.00 0.01 0.01 78 1005.4
20260506172601 52 272 9.0 15.0 0.00 0.01 0.01 78 1005.4
20260506172501 52 251 10.0 16.0 0.00 0.01 0.01 77 1005.4
20260506172400 52 263 10.0 17.0 0.00 0.01 0.01 78 1005.4
20260506172300 52 242 11.0 17.0 0.00 0.01 0.01 78 1005.4
20260506172200 52 267 11.0 17.0 0.00 0.01 0.01 78 1005.5
20260506172100 52 285 11.0 17.0 0.00 0.01 0.01 77 1005.6
20260506172000 52 261 11.0 17.0 0.00 0.01 0.01 78 1005.3
20260506171901 52 273 11.0 17.0 0.00 0.01 0.01 78 1005.3
20260506171800 52 269 11.0 17.0 0.00 0.01 0.01 78 1005.3
20260506171700 52 253 10.0 17.0 0.00 0.01 0.01 78 1005.4
20260506171600 52 230 10.0 17.0 0.00 0.01 0.01 77 1005.4
20260506171500 52 286 11.0 19.0 0.00 0.01 0.01 78 1005.4
20260506171400 52 268 11.0 19.0 0.00 0.01 0.01 78 1005.3
20260506171300 52 250 11.0 19.0 0.00 0.01 0.01 77 1005.4
20260506171200 52 292 11.0 19.0 0.00 0.01 0.01 77 1005.3
20260506171100 52 233 11.0 19.0 0.00 0.01 0.01 78 1005.3
20260506171001 52 248 11.0 19.0 0.00 0.01 0.01 78 1005.5
20260506170901 52 277 11.0 19.0 0.00 0.01 0.01 78 1005.3
20260506170800 52 253 12.0 19.0 0.00 0.01 0.01 78 1005.3
20260506170700 52 252 12.0 19.0 0.00 0.01 0.01 77 1005.3
20260506170600 52 254 12.0 19.0 0.00 0.01 0.01 77 1005.4
20260506170501 52 263 12.0 19.0 0.00 0.01 0.01 77 1005.4
20260506170401 52 282 12.0 19.0 0.00 0.02 0.01 78 1005.4
20260506170300 52 256 12.0 19.0 0.00 0.02 0.01 78 1005.6
20260506170200 52 220 12.0 19.0 0.00 0.02 0.01 78 1005.5
20260506170100 52 268 12.0 20.0 0.00 0.02 0.01 78 1005.3
20260506170001 52 210 12.0 20.0 0.00 0.02 0.01 77 1005.3
20260506165901 52 240 12.0 20.0 0.00 0.02 0.01 77 1005.5
20260506165800 52 266 12.0 20.0 0.00 0.02 0.01 77 1005.3
20260506165700 52 269 12.0 20.0 0.00 0.02 0.01 77 1005.2
20260506165600 53 256 12.0 20.0 0.00 0.02 0.01 78 1005.2
20260506165500 53 277 12.0 20.0 0.00 0.02 0.01 77 1005.6
20260506165400 53 255 13.0 21.0 0.00 0.02 0.01 78 1005.2
20260506165300 53 254 13.0 21.0 0.00 0.02 0.01 77 1005.4
20260506165202 53 237 13.0 21.0 0.00 0.02 0.01 78 1005.4
20260506165101 53 269 13.0 21.0 0.00 0.02 0.01 78 1005.2
20260506165001 53 302 14.0 21.0 0.00 0.02 0.01 77 1005.3
20260506164901 53 258 15.0 25.0 0.00 0.02 0.01 77 1005.3
20260506164801 53 256 15.0 25.0 0.00 0.02 0.01 77 1005.3
20260506164700 53 245 15.0 25.0 0.00 0.02 0.01 76 1005.5
20260506164600 53 282 15.0 25.0 0.00 0.02 0.01 76 1005.8
20260506164500 53 244 15.0 25.0 0.00 0.02 0.01 76 1005.8
20260506164400 53 288 14.0 25.0 0.00 0.02 0.01 76 1005.3
20260506164301 53 273 14.0 25.0 0.00 0.02 0.01 77 1005.3
20260506164200 53 236 14.0 25.0 0.00 0.02 0.01 76 1005.3
20260506164100 53 292 13.0 25.0 0.00 0.02 0.01 76 1005.5
20260506164001 53 277 13.0 25.0 0.00 0.02 0.01 77 1005.5
20260506163901 53 271 13.0 23.0 0.00 0.02 0.01 77 1005.6
20260506163800 53 240 13.0 23.0 0.01 0.02 0.01 77 1005.6
20260506163700 53 267 12.0 23.0 0.01 0.02 0.01 78 1005.8
20260506163600 53 242 12.0 23.0 0.01 0.02 0.01 80 1005.4
20260506163500 53 289 11.0 23.0 0.01 0.02 0.01 80 1005.3
20260506163400 53 270 11.0 23.0 0.01 0.02 0.01 79 1005.3
20260506163300 53 247 11.0 23.0 0.01 0.02 0.01 79 1005.3
20260506163200 53 284 11.0 23.0 0.01 0.02 0.01 78 1005.4
20260506163101 53 265 10.0 23.0 0.01 0.02 0.01 79 1005.2
20260506163000 53 281 10.0 23.0 0.01 0.02 0.01 79 1005.3
20260506162901 53 297 9.0 15.0 0.01 0.02 0.01 80 1005.4
20260506162801 53 265 9.0 15.0 0.01 0.02 0.01 81 1005.5
20260506162701 53 282 9.0 14.0 0.01 0.02 0.01 81 1005.2
20260506162600 53 221 8.0 14.0 0.01 0.02 0.01 81 1005.2
20260506162500 53 257 8.0 14.0 0.01 0.02 0.01 82 1005.2
20260506162400 53 269 9.0 14.0 0.01 0.02 0.01 82 1005.1
20260506162300 53 241 9.0 14.0 0.01 0.02 0.01 81 1005.1
20260506162200 53 270 9.0 20.0 0.01 0.02 0.01 81 1005.2
20260506162101 53 289 10.0 20.0 0.01 0.02 0.01 81 1005.1
20260506162000 53 285 10.0 20.0 0.01 0.02 0.01 81 1005.1
20260506161900 53 273 10.0 20.0 0.01 0.02 0.01 82 1005.1
20260506161800 53 268 10.0 20.0 0.01 0.02 0.01 82 1005.2
20260506161700 53 242 11.0 20.0 0.01 0.02 0.01 82 1005.1
20260506161600 53 264 11.0 20.0 0.01 0.02 0.01 81 1005.2
20260506161500 53 263 12.0 20.0 0.01 0.02 0.01 81 1005.1
20260506161400 53 248 12.0 20.0 0.01 0.02 0.01 81 1005.2
20260506161301 53 260 12.0 20.0 0.01 0.02 0.01 81 1005.3
20260506161201 53 263 12.0 19.0 0.01 0.02 0.01 82 1005.3
20260506161124 53 262 11.0 19.0 0.01 0.02 0.01 82 1005.2
20260506161120 53 269 12.0 19.0 0.01 0.02 0.01 82 1005.2
20260506161112 53 269 11.0 19.0 0.01 0.02 0.01 82 1005.1
20260506160801 53 270 11.0 19.0 0.01 0.02 0.01 83 1005.0
20260506160701 53 266 11.0 19.0 0.01 0.02 0.01 83 1005.2
20260506160601 53 294 10.0 19.0 0.01 0.02 0.01 84 1005.0
20260506160503 53 230 10.0 19.0 0.01 0.02 0.01 84 1005.0
20260506160400 53 255 10.0 19.0 0.01 0.02 0.01 85 1005.1
20260506160301 53 263 10.0 19.0 0.01 0.02 0.01 84 1004.9
20260506160201 53 268 11.0 19.0 0.01 0.02 0.01 85 1004.7
20260506160124 53 238 11.0 19.0 0.01 0.02 0.01 85 1005.0
20260506160120 53 278 10.0 17.0 0.01 0.02 0.01 85 1004.9
20260506160111 52 274 10.0 17.0 0.01 0.02 0.01 84 1004.9
20260506155801 52 224 10.0 17.0 0.01 0.02 0.01 84 1004.9
20260506155701 52 273 10.0 17.0 0.01 0.02 0.01 84 1004.7
20260506155601 52 257 11.0 18.0 0.01 0.02 0.01 84 1004.7
20260506155501 52 273 11.0 18.0 0.01 0.02 0.01 83 1004.9
20260506155401 53 268 11.0 18.0 0.01 0.02 0.01 84 1005.0
20260506155305 53 265 11.0 20.0 0.01 0.02 0.01 83 1004.9
20260506155201 53 268 11.0 20.0 0.01 0.02 0.01 83 1005.1
20260506155124 53 272 12.0 20.0 0.01 0.02 0.01 83 1004.9
20260506155120 53 229 11.0 20.0 0.01 0.02 0.01 83 1004.9
20260506155111 53 264 12.0 20.0 0.01 0.02 0.01 82 1004.6
20260506154756 53 283 12.0 20.0 0.01 0.02 0.01 82 1004.6
20260506154656 53 270 12.0 20.0 0.01 0.02 0.01 81 1004.5
20260506154557 53 302 13.0 20.0 0.01 0.02 0.01 81 1004.5
20260506154458 53 271 13.0 20.0 0.01 0.02 0.01 80 1004.5
20260506154401 54 263 13.0 23.0 0.01 0.02 0.01 80 1004.7
20260506154356 54 250 13.0 23.0 0.01 0.02 0.01 80 1004.6
20260506154256 54 268 13.0 23.0 0.01 0.02 0.01 79 1004.6
20260506154156 54 282 13.0 24.0 0.01 0.02 0.01 78 1004.6
20260506154054 55 263 13.0 24.0 0.01 0.02 0.01 77 1004.7
20260506153954 55 251 14.0 25.0 0.01 0.02 0.01 76 1004.6
20260506153900 56 276 14.0 25.0 0.01 0.02 0.00 75 1004.6
20260506153854 56 273 14.0 26.0 0.01 0.02 0.00 75 1004.6
20260506153752 56 292 15.0 26.0 0.00 0.01 0.00 74 1004.7
20260506153652 57 258 15.0 34.0 0.00 0.01 0.00 73 1004.6
20260506153552 57 277 15.0 34.0 0.00 0.01 0.00 70 1004.6
20260506153453 58 257 14.0 34.0 0.00 0.01 0.00 69 1004.5
20260506153401 58 265 14.0 34.0 0.00 0.01 0.00 67 1004.5
20260506153353 58 248 13.0 34.0 0.00 0.01 0.00 67 1004.5
20260506153253 59 243 13.0 34.0 0.00 0.01 0.00 66 1004.7
20260506153152 60 250 11.0 34.0 0.00 0.01 0.00 65 1004.5
20260506153052 60 283 10.0 34.0 0.00 0.01 0.00 63 1004.3
20260506152952 61 220 9.0 34.0 0.00 0.01 0.00 62 1004.5
20260506152900 62 286 9.0 34.0 0.00 0.01 0.00 62 1004.5
20260506152852 62 331 9.0 34.0 0.00 0.01 0.00 62 1004.7
20260506152752 62 234 7.0 34.0 0.00 0.01 0.00 62 1004.3
20260506152652 62 265 6.0 21.0 0.00 0.01 0.00 63 1003.7
20260506152628 63 227 5.0 11.0 0.00 0.01 0.00 62 1003.4
20260506152621 63 211 5.0 12.0 0.00 0.01 0.00 63 1003.7
20260506152617 63 219 5.0 11.0 0.00 0.01 0.00 62 1003.4
20260506152347 63 205 5.0 11.0 0.00 0.01 0.00 62 1003.3
20260506152246 63 220 5.0 11.0 0.00 0.01 0.00 62 1003.2
20260506152145 63 223 5.0 11.0 0.00 0.01 0.00 62 1003.3
20260506152042 63 234 5.0 11.0 0.00 0.01 0.00 62 1003.3
20260506151945 63 214 4.0 11.0 0.00 0.01 0.00 62 1003.2
20260506151901 63 210 4.0 11.0 0.00 0.01 0.00 62 1003.2
20260506151843 64 212 4.0 11.0 0.00 0.01 0.00 62 1003.2
20260506151742 64 219 4.0 10.0 0.00 0.01 0.00 62 1003.2
20260506151639 64 196 3.0 9.0 0.00 0.01 0.00 62 1003.1
20260506151541 64 203 3.0 9.0 0.00 0.01 0.00 61 1003.1
20260506151442 64 204 3.0 9.0 0.00 0.01 0.00 61 1003.1
20260506151401 64 148 3.0 9.0 0.00 0.01 0.00 62 1003.1
20260506151340 64 145 2.0 8.0 0.00 0.01 0.00 61 1003.0
20260506151240 64 126 2.0 8.0 0.00 0.01 0.00 62 1002.8
20260506151139 64 221 2.0 8.0 0.00 0.01 0.00 61 1002.8
20260506151125 64 192 2.0 8.0 0.00 0.01 0.00 61 1002.7
20260506151119 64 188 2.0 8.0 0.00 0.01 0.00 61 1002.7
20260506151115 64 191 2.0 8.0 0.00 0.01 0.00 61 1002.7
20260506150836 64 192 3.0 8.0 0.00 0.01 0.00 62 1002.6
20260506150734 64 132 3.0 7.0 0.00 0.01 0.00 63 1002.6
20260506150634 64 119 3.0 10.0 0.00 0.01 0.00 62 1002.6
20260506150533 64 120 3.0 10.0 0.00 0.01 0.00 63 1002.7
20260506150431 64 117 4.0 10.0 0.00 0.01 0.00 62 1002.6
20260506150400 64 117 4.0 10.0 0.00 0.01 0.00 63 1002.6
20260506150330 64 117 4.0 10.0 0.00 0.01 0.00 63 1002.6
20260506150229 64 196 3.0 10.0 0.00 0.01 0.00 64 1002.6
20260506150129 64 237 3.0 10.0 0.00 0.01 0.00 64 1002.7
20260506150029 64 236 3.0 10.0 0.00 0.01 0.00 64 1002.6
20260506145929 64 197 3.0 10.0 0.00 0.01 0.00 64 1002.7
20260506145902 64 197 3.0 10.0 0.00 0.01 0.00 63 1002.7
20260506145829 64 184 3.0 10.0 0.00 0.01 0.00 63 1002.7
20260506145729 64 150 3.0 10.0 0.00 0.01 0.00 64 1002.7
20260506145629 64 119 3.0 7.0 0.00 0.01 0.00 64 1002.7
20260506145530 64 190 3.0 7.0 0.00 0.01 0.00 65 1002.6
20260506145434 63 195 3.0 7.0 0.00 0.01 0.00 64 1002.7
20260506145402 63 202 3.0 7.0 0.00 0.01 0.00 65 1002.7
20260506145329 63 216 3.0 7.0 0.00 0.01 0.00 65 1002.7
20260506145229 63 200 4.0 10.0 0.00 0.01 0.00 66 1002.7
20260506145129 63 200 4.0 10.0 0.00 0.01 0.00 66 1002.7
20260506145125 62 205 4.0 10.0 0.00 0.01 0.00 65 1002.7
20260506145119 63 194 4.0 10.0 0.00 0.01 0.00 67 1002.7
20260506145115 63 172 4.0 10.0 0.00 0.01 0.00 66 1002.7
20260506144829 62 208 4.0 10.0 0.00 0.01 0.00 65 1002.7
20260506144729 62 198 4.0 10.0 0.00 0.01 0.00 66 1002.7
20260506144633 62 142 4.0 10.0 0.00 0.01 0.00 67 1002.7
20260506144628 62 177 4.0 10.0 0.00 0.01 0.00 68 1002.8
20260506144620 62 171 4.0 10.0 0.00 0.01 0.00 67 1002.8
20260506144616 62 153 4.0 10.0 0.00 0.01 0.00 67 1002.7
20260506144329 62 130 4.0 10.0 0.00 0.01 0.00 67 1002.7
20260506144229 62 169 3.0 7.0 0.00 0.01 0.00 68 1002.7
20260506144129 62 178 3.0 7.0 0.00 0.01 0.00 67 1002.7
20260506144028 62 153 3.0 7.0 0.00 0.01 0.00 68 1002.7
20260506143901 61 107 3.0 7.0 0.00 0.01 0.00 66 1002.6
20260506143828 61 124 2.0 7.0 0.00 0.01 0.00 67 1002.6
20260506143728 61 140 2.0 6.0 0.00 0.01 0.00 67 1002.6
20260506143628 61 131 2.0 6.0 0.00 0.01 0.00 66 1002.6
20260506143528 61 127 2.0 6.0 0.00 0.01 0.00 66 1002.6
20260506143429 61 137 1.0 5.0 0.00 0.01 0.00 68 1002.6
20260506143400 61 128 1.0 5.0 0.00 0.01 0.00 68 1002.6
20260506143328 61 123 1.0 5.0 0.00 0.01 0.00 69 1002.6
20260506143225 61 115 1.0 5.0 0.00 0.01 0.00 69 1002.6
20260506143124 61 146 1.0 5.0 0.00 0.01 0.00 70 1002.6
20260506143024 61 165 1.0 5.0 0.00 0.01 0.00 69 1002.7
20260506142922 61 165 1.0 5.0 0.00 0.01 0.00 69 1002.7
20260506142906 61 166 1.0 5.0 0.00 0.01 0.00 70 1002.7
20260506142822 61 166 1.0 5.0 0.00 0.01 0.00 70 1002.7
20260506142722 61 166 1.0 5.0 0.00 0.01 0.00 69 1002.7
20260506142620 61 166 1.0 5.0 0.00 0.01 0.00 70 1002.7
20260506142518 60 162 1.0 5.0 0.00 0.01 0.00 72 1002.7
20260506142402 60 292 2.0 7.0 0.00 0.01 0.00 71 1002.7
20260506142316 60 292 2.0 7.0 0.00 0.01 0.00 71 1002.7
20260506142213 60 292 2.0 7.0 0.00 0.01 0.00 69 1002.6
20260506142114 60 292 3.0 9.0 0.00 0.01 0.00 69 1002.7
20260506142012 60 292 3.0 9.0 0.00 0.01 0.00 69 1002.6
20260506141910 60 292 4.0 9.0 0.00 0.01 0.00 69 1002.6
20260506141901 60 285 4.0 9.0 0.00 0.01 0.00 71 1002.6
20260506141810 60 285 4.0 9.0 0.00 0.01 0.00 68 1002.7
20260506141707 60 140 4.0 9.0 0.00 0.01 0.00 69 1002.8
20260506141606 60 140 4.0 9.0 0.00 0.01 0.00 69 1003.0
20260506141506 60 227 4.0 9.0 0.00 0.01 0.00 70 1003.1
20260506141405 60 223 4.0 9.0 0.00 0.01 0.00 70 1003.2
20260506141401 60 227 4.0 9.0 0.00 0.01 0.00 70 1003.2
20260506141304 60 234 4.0 10.0 0.00 0.01 0.00 69 1003.3
20260506141204 60 237 4.0 10.0 0.00 0.01 0.00 69 1003.3
20260506141104 60 249 4.0 10.0 0.00 0.01 0.00 69 1003.4
20260506141004 60 205 4.0 10.0 0.00 0.01 0.00 69 1003.4
20260506140901 60 205 4.0 10.0 0.00 0.01 0.00 68 1003.4
20260506140804 60 223 4.0 10.0 0.00 0.01 0.00 68 1003.5
20260506140704 60 225 4.0 10.0 0.00 0.01 0.00 67 1003.4
20260506140620 60 236 4.0 10.0 0.00 0.01 0.00 67 1003.4
20260506140616 60 192 5.0 10.0 0.00 0.01 0.00 68 1003.3
20260506140612 60 207 5.0 10.0 0.00 0.01 0.00 68 1003.3
20260506140302 60 238 5.0 10.0 0.00 0.01 0.00 67 1003.3
20260506140202 60 178 5.0 10.0 0.00 0.01 0.00 66 1003.2
20260506140002 60 193 5.0 10.0 0.00 0.01 0.00 66 1003.3
20260506135901 60 169 4.0 10.0 0.00 0.01 0.00 67 1003.2
20260506135801 60 154 4.0 10.0 0.00 0.01 0.00 69 1003.3
20260506135701 60 129 4.0 10.0 0.00 0.01 0.00 67 1003.3
20260506135601 60 211 4.0 10.0 0.00 0.01 0.00 66 1003.2
20260506135501 60 167 4.0 9.0 0.00 0.01 0.00 68 1003.3
20260506135401 59 169 4.0 8.0 0.00 0.01 0.00 69 1003.3
20260506135301 59 209 4.0 12.0 0.00 0.01 0.00 69 1003.3
20260506135200 59 136 4.0 12.0 0.00 0.01 0.00 70 1003.3
20260506135100 59 173 4.0 12.0 0.00 0.01 0.00 70 1003.4
20260506135001 59 190 4.0 12.0 0.00 0.01 0.00 69 1003.4
20260506134903 59 177 5.0 12.0 0.00 0.01 0.00 68 1003.5
20260506134801 59 187 5.0 12.0 0.00 0.01 0.00 70 1003.5
20260506134700 59 193 5.0 12.0 0.00 0.01 0.00 69 1003.6
20260506134600 59 187 5.0 12.0 0.00 0.01 0.00 69 1003.6
20260506134500 59 181 5.0 12.0 0.00 0.01 0.00 68 1003.6
20260506134401 59 195 4.0 12.0 0.00 0.01 0.00 67 1003.5
20260506134301 60 175 4.0 11.0 0.00 0.01 0.00 67 1003.5
20260506134201 60 221 4.0 11.0 0.00 0.01 0.00 67 1003.5
20260506134101 60 153 3.0 11.0 0.00 0.01 0.00 66 1003.5
20260506134001 60 142 3.0 10.0 0.00 0.01 0.00 67 1003.5
20260506133901 60 158 3.0 10.0 0.00 0.01 0.00 68 1003.5
20260506133800 60 125 2.0 10.0 0.00 0.01 0.00 69 1003.5
20260506133701 60 119 1.0 4.0 0.00 0.01 0.00 69 1003.5
20260506133601 60 121 1.0 4.0 0.00 0.01 0.00 68 1003.5
20260506133501 60 132 1.0 3.0 0.00 0.01 0.00 69 1003.4
20260506133403 60 134 1.0 3.0 0.00 0.01 0.00 69 1003.4
20260506133301 60 134 1.0 3.0 0.00 0.01 0.00 68 1003.4
20260506133201 60 131 1.0 3.0 0.00 0.01 0.00 68 1003.4
20260506133121 60 132 1.0 3.0 0.00 0.01 0.00 69 1003.4
20260506133117 60 179 1.0 3.0 0.00 0.01 0.00 71 1003.4
20260506133113 60 179 1.0 3.0 0.00 0.01 0.00 69 1003.4
20260506132851 60 179 2.0 6.0 0.00 0.01 0.00 69 1003.3
20260506132843 60 179 1.0 3.0 0.00 0.01 0.00 69 1003.4
20260506132839 60 179 1.0 4.0 0.00 0.01 0.00 69 1003.4
20260506132620 60 179 2.0 6.0 0.00 0.01 0.00 69 1003.4
20260506132616 60 179 2.0 6.0 0.00 0.01 0.00 70 1003.3
20260506132612 60 179 2.0 6.0 0.00 0.01 0.00 69 1003.3
20260506132301 60 180 2.0 6.0 0.00 0.01 0.00 69 1003.3
20260506132201 60 180 2.0 6.0 0.00 0.01 0.00 68 1003.3
20260506132101 60 180 2.0 6.0 0.00 0.01 0.00 68 1003.3
20260506132001 60 179 2.0 6.0 0.00 0.01 0.00 68 1003.3
20260506131900 60 179 2.0 6.0 0.00 0.01 0.00 68 1003.3
20260506131801 60 179 2.0 6.0 0.00 0.01 0.00 68 1003.3
20260506131701 60 179 2.0 6.0 0.00 0.01 0.00 67 1003.3
20260506131601 60 186 2.0 5.0 0.00 0.01 0.00 67 1003.3
20260506131501 60 165 1.0 5.0 0.00 0.01 0.00 67 1003.3
20260506131401 60 165 1.0 5.0 0.00 0.01 0.00 67 1003.3
20260506131304 60 166 1.0 5.0 0.00 0.01 0.00 67 1003.2
20260506131200 60 166 1.0 5.0 0.00 0.01 0.00 67 1003.2
20260506131101 60 166 1.0 5.0 0.00 0.01 0.00 67 1003.1
20260506131001 60 150 1.0 5.0 0.00 0.01 0.00 66 1003.1
20260506130901 60 150 1.0 4.0 0.00 0.01 0.00 67 1003.0
20260506130804 60 121 1.0 4.0 0.00 0.01 0.00 66 1003.0
20260506130700 60 104 1.0 4.0 0.00 0.01 0.00 65 1002.8
20260506130621 61 103 1.0 4.0 0.00 0.01 0.00 65 1002.8
20260506130617 61 103 1.0 4.0 0.00 0.01 0.00 65 1002.7
20260506130613 61 103 1.0 4.0 0.00 0.01 0.00 66 1002.7
20260506130301 61 103 1.0 4.0 0.00 0.01 0.00 66 1002.7
20260506130201 61 100 1.0 4.0 0.00 0.01 0.00 67 1002.7
20260506130120 61 130 1.0 4.0 0.00 0.01 0.00 67 1002.7
20260506130116 61 132 1.0 4.0 0.00 0.01 0.00 66 1002.6
20260506130112 61 132 1.0 4.0 0.00 0.01 0.00 67 1002.6
20260506125801 61 75 1.0 4.0 0.00 0.01 0.00 66 1002.6
20260506125701 61 88 1.0 4.0 0.00 0.01 0.00 65 1002.6
20260506125601 61 98 1.0 4.0 0.00 0.01 0.00 65 1002.6
20260506125501 61 93 1.0 4.0 0.00 0.01 0.00 65 1002.7
20260506125401 61 93 1.0 4.0 0.00 0.01 0.00 64 1002.6
20260506125301 61 93 1.0 4.0 0.00 0.01 0.00 65 1002.6
20260506125201 61 93 1.0 4.0 0.00 0.01 0.00 64 1002.6
20260506125101 62 91 1.0 4.0 0.00 0.01 0.00 63 1002.6
20260506125000 62 91 1.0 4.0 0.00 0.01 0.00 62 1002.6
20260506124900 62 92 1.0 4.0 0.00 0.01 0.00 62 1002.6
20260506124853 62 109 1.0 3.0 0.00 0.01 0.00 61 1002.7
20260506124848 62 90 1.0 4.0 0.00 0.01 0.00 62 1002.6
20260506124839 62 94 1.0 4.0 0.00 0.01 0.00 60 1002.6
20260506124619 62 94 1.0 4.0 0.00 0.01 0.00 60 1002.6
20260506124615 62 106 1.0 3.0 0.00 0.01 0.00 60 1002.6
20260506124611 62 109 1.0 3.0 0.00 0.01 0.00 61 1002.7
20260506124300 62 109 0.0 3.0 0.00 0.01 0.00 62 1002.7
20260506124200 62 109 0.0 3.0 0.00 0.01 0.00 61 1002.7
20260506124122 62 119 0.0 2.0 0.00 0.01 0.00 60 1002.7
20260506124118 62 106 0.0 2.0 0.00 0.01 0.00 61 1002.8
20260506124114 62 107 0.0 2.0 0.00 0.01 0.00 62 1002.8
20260506123801 62 110 0.0 2.0 0.00 0.01 0.00 62 1002.8
20260506123700 62 111 0.0 2.0 0.00 0.01 0.00 62 1002.8
20260506123600 62 111 0.0 3.0 0.00 0.01 0.00 60 1002.8
20260506123500 62 111 1.0 3.0 0.00 0.01 0.00 60 1002.8
20260506123401 62 111 1.0 4.0 0.00 0.01 0.00 61 1002.8
20260506123301 62 111 1.0 4.0 0.00 0.01 0.00 61 1002.8
20260506123202 62 112 1.0 4.0 0.00 0.01 0.00 61 1003.0
20260506123101 63 111 1.0 4.0 0.00 0.01 0.00 61 1002.8
20260506123001 62 112 1.0 4.0 0.00 0.01 0.00 61 1002.8
20260506122901 63 112 1.0 4.0 0.00 0.01 0.00 60 1002.8
20260506122801 63 112 1.0 4.0 0.00 0.01 0.00 60 1002.8
20260506122701 63 112 1.0 4.0 0.00 0.01 0.00 60 1002.8
20260506122601 63 111 1.0 4.0 0.00 0.01 0.00 60 1002.8
20260506122501 63 88 1.0 4.0 0.00 0.01 0.00 59 1002.8
20260506122402 63 69 1.0 4.0 0.00 0.01 0.00 59 1003.0
20260506122301 63 68 1.0 4.0 0.00 0.01 0.00 58 1003.0
20260506122201 63 68 1.0 4.0 0.00 0.01 0.00 59 1003.0
20260506122101 63 68 1.0 4.0 0.00 0.01 0.00 59 1002.8
20260506122001 63 67 1.0 4.0 0.00 0.01 0.00 58 1003.0
20260506121901 63 65 1.0 4.0 0.00 0.01 0.00 58 1003.0
20260506121801 63 65 1.0 4.0 0.00 0.01 0.00 58 1003.0
20260506121700 63 65 1.0 4.0 0.00 0.01 0.00 58 1003.0
20260506121600 63 65 1.0 5.0 0.00 0.01 0.00 58 1003.1
20260506121500 63 88 1.0 6.0 0.00 0.01 0.00 58 1003.1
20260506121400 63 90 1.0 6.0 0.00 0.01 0.00 59 1003.1
20260506121301 63 90 1.0 6.0 0.00 0.01 0.00 59 1003.1
20260506121159 63 91 1.0 6.0 0.00 0.01 0.00 59 1003.1
20260506121059 63 91 1.0 6.0 0.00 0.01 0.00 58 1003.1
20260506121000 63 91 1.0 6.0 0.00 0.01 0.00 60 1003.1
20260506120902 63 91 1.0 6.0 0.00 0.01 0.00 59 1003.1
20260506120858 63 91 1.0 6.0 0.00 0.01 0.00 59 1003.1
20260506120756 63 64 1.0 6.0 0.00 0.01 0.00 58 1003.1
20260506120650 63 83 1.0 6.0 0.00 0.01 0.00 59 1003.1
20260506120550 63 80 1.0 6.0 0.00 0.01 0.00 60 1003.1
20260506120449 63 87 1.0 4.0 0.00 0.01 0.00 58 1003.0
20260506120402 63 87 1.0 4.0 0.00 0.01 0.00 58 1003.0
20260506120349 63 87 1.0 4.0 0.00 0.01 0.00 58 1003.0
20260506120249 63 87 1.0 4.0 0.00 0.01 0.00 58 1003.0
20260506120144 63 87 1.0 4.0 0.00 0.01 0.00 58 1002.8
20260506120044 63 87 2.0 5.0 0.00 0.01 0.00 59 1002.8
20260506115944 63 86 2.0 5.0 0.00 0.01 0.00 58 1002.8
20260506115903 63 86 2.0 5.0 0.00 0.01 0.00 57 1002.8
20260506115844 63 86 2.0 5.0 0.00 0.01 0.00 57 1003.0
20260506115744 63 86 2.0 5.0 0.00 0.01 0.00 58 1003.0
20260506115641 63 84 2.0 5.0 0.00 0.01 0.00 58 1003.1
20260506115625 63 88 2.0 5.0 0.00 0.01 0.00 57 1003.1
20260506115617 63 53 2.0 5.0 0.00 0.01 0.00 57 1003.1
20260506115613 63 28 2.0 5.0 0.00 0.01 0.00 57 1003.1
20260506115340 63 88 2.0 5.0 0.00 0.01 0.00 57 1003.1
20260506115240 63 89 2.0 5.0 0.00 0.01 0.00 57 1003.1
20260506115140 63 44 2.0 5.0 0.00 0.01 0.00 58 1003.1
20260506115040 63 115 2.0 5.0 0.00 0.01 0.00 58 1003.0
20260506114937 63 114 2.0 5.0 0.00 0.01 0.00 58 1003.0
20260506114903 63 93 2.0 6.0 0.00 0.01 0.00 58 1003.0
20260506114838 63 69 2.0 6.0 0.00 0.01 0.00 58 1003.0
20260506114738 63 85 2.0 6.0 0.00 0.01 0.00 57 1002.8
20260506114638 63 75 2.0 6.0 0.00 0.01 0.00 59 1003.0
20260506114538 63 22 2.0 6.0 0.00 0.01 0.00 58 1003.0
20260506114435 63 62 2.0 6.0 0.00 0.01 0.00 59 1003.0
20260506114401 63 34 2.0 6.0 0.00 0.01 0.00 57 1003.0
20260506114335 63 28 2.0 6.0 0.00 0.01 0.00 57 1003.0
20260506114236 63 28 2.0 6.0 0.00 0.01 0.00 57 1003.1
20260506114136 63 80 2.0 6.0 0.00 0.01 0.00 57 1003.1
20260506114036 63 80 2.0 6.0 0.00 0.01 0.00 57 1003.1
20260506113936 63 80 2.0 6.0 0.00 0.01 0.00 57 1003.1
20260506113901 63 9 2.0 6.0 0.00 0.01 0.00 57 1003.2
20260506113833 63 27 2.0 6.0 0.00 0.01 0.00 57 1003.2
20260506113733 63 98 2.0 6.0 0.00 0.01 0.00 57 1003.2
20260506113631 63 98 2.0 6.0 0.00 0.01 0.00 59 1003.2
20260506113529 63 97 2.0 6.0 0.00 0.01 0.00 57 1003.2
20260506113429 63 96 2.0 6.0 0.00 0.01 0.00 57 1003.2
20260506113329 63 26 2.0 6.0 0.00 0.01 0.00 57 1003.2
20260506113229 63 26 2.0 6.0 0.00 0.01 0.00 58 1003.2
20260506113129 63 39 2.0 6.0 0.00 0.01 0.00 58 1003.2
20260506113029 63 87 2.0 6.0 0.00 0.01 0.00 58 1003.2
20260506112929 63 59 1.0 6.0 0.00 0.01 0.00 59 1003.2
20260506112850 63 42 1.0 5.0 0.00 0.01 0.00 59 1003.2
20260506112829 63 73 1.0 3.0 0.00 0.01 0.00 59 1003.2
20260506112729 63 53 1.0 3.0 0.00 0.01 0.00 59 1003.2
20260506112629 63 28 1.0 3.0 0.00 0.01 0.00 59 1003.2
20260506112528 63 122 1.0 3.0 0.00 0.01 0.00 60 1003.2
20260506112429 63 122 1.0 3.0 0.00 0.01 0.00 58 1003.3
20260506112329 63 126 1.0 4.0 0.00 0.01 0.00 58 1003.3
20260506112229 63 123 1.0 4.0 0.00 0.01 0.00 57 1003.3
20260506112129 63 126 1.0 4.0 0.00 0.01 0.00 58 1003.3
20260506112029 63 126 1.0 4.0 0.00 0.01 0.00 58 1003.3
20260506111929 63 73 1.0 4.0 0.00 0.01 0.00 58 1003.3
20260506111840 63 74 2.0 6.0 0.00 0.01 0.00 58 1003.3
20260506111829 63 73 2.0 6.0 0.00 0.01 0.00 58 1003.3
20260506111729 63 74 2.0 6.0 0.00 0.01 0.00 59 1003.3
20260506111629 63 88 2.0 6.0 0.00 0.01 0.00 58 1003.3
20260506111604 63 78 2.0 10.0 0.00 0.01 0.00 57 1003.2
20260506111554 63 94 2.0 6.0 0.00 0.01 0.00 55 1003.2
20260506111551 63 94 2.0 10.0 0.00 0.01 0.00 57 1003.2
20260506111329 63 78 2.0 10.0 0.00 0.01 0.00 57 1003.2
20260506111227 63 338 2.0 10.0 0.00 0.01 0.00 56 1003.2
20260506111128 63 113 3.0 10.0 0.00 0.01 0.00 57 1003.2
20260506111027 63 92 3.0 11.0 0.00 0.01 0.00 58 1003.2
20260506110927 63 97 3.0 11.0 0.00 0.01 0.00 57 1003.2
20260506110839 63 86 3.0 11.0 0.00 0.01 0.00 57 1003.2
20260506110825 63 103 3.0 11.0 0.00 0.01 0.00 57 1003.2
20260506110724 63 103 3.0 11.0 0.00 0.01 0.00 59 1003.2
20260506110624 63 95 3.0 11.0 0.00 0.01 0.00 57 1003.2
20260506110524 63 105 3.0 11.0 0.00 0.01 0.00 58 1003.2
20260506110422 63 97 3.0 11.0 0.00 0.01 0.00 60 1003.2
20260506110340 63 77 3.0 11.0 0.00 0.01 0.00 60 1003.2
20260506110321 63 103 3.0 11.0 0.00 0.01 0.00 60 1003.2
20260506110221 63 71 3.0 11.0 0.00 0.01 0.00 60 1003.1
20260506110122 63 51 3.0 11.0 0.00 0.01 0.00 60 1003.1
20260506110022 63 127 2.0 8.0 0.00 0.01 0.00 58 1003.2
20260506105920 63 100 3.0 8.0 0.00 0.01 0.00 58 1003.2
20260506105840 63 107 3.0 8.0 0.00 0.01 0.00 60 1003.2
20260506105819 63 146 3.0 8.0 0.00 0.01 0.00 59 1003.2
20260506105717 63 99 3.0 6.0 0.00 0.01 0.00 59 1003.2
20260506105617 63 108 3.0 6.0 0.00 0.01 0.00 59 1003.2
20260506105516 63 37 3.0 6.0 0.00 0.01 0.00 58 1003.2
20260506105416 63 96 3.0 7.0 0.00 0.01 0.00 57 1003.2
20260506105340 63 63 3.0 7.0 0.00 0.01 0.00 59 1003.2
20260506105316 63 74 3.0 10.0 0.00 0.01 0.00 58 1003.2
20260506105216 63 71 4.0 10.0 0.00 0.01 0.00 59 1003.2
20260506105115 63 82 3.0 10.0 0.00 0.01 0.00 60 1003.2
20260506105102 63 0 3.0 10.0 0.00 0.01 0.00 60 1003.3
20260506105055 63 63 4.0 10.0 0.00 0.01 0.00 61 1003.3
20260506105051 63 51 4.0 10.0 0.00 0.01 0.00 62 1003.3
20260506104812 63 337 3.0 10.0 0.00 0.01 0.00 60 1003.3
20260506104711 63 15 4.0 10.0 0.00 0.01 0.00 59 1003.3
20260506104609 63 69 4.0 10.0 0.00 0.01 0.00 59 1003.3
20260506104509 63 44 3.0 10.0 0.00 0.01 0.00 61 1003.3
20260506104410 63 35 3.0 10.0 0.00 0.01 0.00 61 1003.3
20260506104339 63 54 3.0 10.0 0.00 0.01 0.00 62 1003.3
20260506104310 63 28 3.0 10.0 0.00 0.01 0.00 62 1003.3
20260506104209 63 24 3.0 10.0 0.00 0.01 0.00 62 1003.3
20260506104109 63 329 3.0 6.0 0.00 0.01 0.00 61 1003.4
20260506104003 63 355 3.0 6.0 0.00 0.01 0.00 63 1003.4
20260506103903 62 79 3.0 6.0 0.00 0.01 0.00 62 1003.4
20260506103840 62 80 3.0 6.0 0.00 0.01 0.00 60 1003.4
20260506103802 62 62 3.0 6.0 0.00 0.01 0.00 60 1003.4
20260506103702 62 19 2.0 6.0 0.00 0.01 0.00 63 1003.5
20260506103601 62 312 2.0 6.0 0.00 0.01 0.00 63 1003.6
20260506103501 62 312 2.0 6.0 0.00 0.01 0.00 63 1003.6
20260506103401 62 313 2.0 6.0 0.00 0.01 0.00 64 1003.6
20260506103338 62 313 2.0 6.0 0.00 0.01 0.00 66 1003.7
20260506103301 62 319 2.0 5.0 0.00 0.01 0.00 66 1003.7
20260506103201 62 336 2.0 5.0 0.00 0.01 0.00 64 1003.7
20260506103101 62 53 1.0 5.0 0.00 0.01 0.00 64 1003.7
20260506103001 62 186 1.0 4.0 0.00 0.01 0.00 65 1003.8
20260506102901 62 186 2.0 4.0 0.00 0.01 0.00 64 1003.8
20260506102835 62 186 2.0 4.0 0.00 0.01 0.00 64 1003.9
20260506102802 62 186 2.0 4.0 0.00 0.01 0.00 65 1003.9
20260506102701 62 113 2.0 4.0 0.00 0.01 0.00 63 1003.8
20260506102601 62 113 2.0 4.0 0.00 0.01 0.00 64 1003.8
20260506102501 62 113 2.0 6.0 0.00 0.01 0.00 64 1003.8
20260506102401 62 113 2.0 6.0 0.00 0.01 0.00 65 1003.8
20260506102336 62 112 2.0 6.0 0.00 0.01 0.00 65 1003.9
20260506102301 62 112 2.0 6.0 0.00 0.01 0.00 64 1003.9
20260506102201 62 103 2.0 6.0 0.00 0.01 0.00 66 1003.9
20260506102101 62 101 2.0 6.0 0.00 0.01 0.00 64 1003.9
20260506102001 62 98 2.0 6.0 0.00 0.01 0.00 63 1003.9
20260506101859 62 205 2.0 6.0 0.00 0.01 0.00 65 1003.9
20260506101836 62 157 2.0 6.0 0.00 0.01 0.00 65 1003.9
20260506101757 62 112 2.0 6.0 0.00 0.01 0.00 63 1003.9
20260506101658 62 111 2.0 6.0 0.00 0.01 0.00 63 1003.9
20260506101557 62 111 2.0 6.0 0.00 0.01 0.00 63 1003.9
20260506101456 62 92 2.0 7.0 0.00 0.01 0.00 62 1003.9
20260506101356 62 93 2.0 7.0 0.00 0.01 0.00 63 1003.9
20260506101335 62 86 2.0 7.0 0.00 0.01 0.00 63 1003.9
20260506101256 62 119 2.0 7.0 0.00 0.01 0.00 64 1003.9
20260506101156 62 88 2.0 7.0 0.00 0.01 0.00 63 1004.0
20260506101106 62 71 1.0 7.0 0.00 0.01 0.00 65 1004.0
20260506101056 62 96 2.0 7.0 0.00 0.01 0.00 63 1004.0
20260506101051 62 115 2.0 7.0 0.00 0.01 0.00 63 1004.0
20260506101047 62 71 1.0 7.0 0.00 0.01 0.00 64 1004.0
20260506100753 62 98 2.0 7.0 0.00 0.01 0.00 64 1004.0
20260506100653 62 85 2.0 7.0 0.00 0.01 0.00 66 1004.0
20260506100553 61 96 1.0 7.0 0.00 0.01 0.00 67 1004.0
20260506100451 61 196 1.0 5.0 0.00 0.01 0.00 67 1004.0
20260506100352 61 196 1.0 5.0 0.00 0.01 0.00 67 1004.0
20260506100336 61 197 1.0 5.0 0.00 0.01 0.00 66 1004.0
20260506100252 61 197 1.0 5.0 0.00 0.01 0.00 66 1004.1
20260506100152 61 197 1.0 5.0 0.00 0.01 0.00 67 1004.1
20260506100052 61 196 1.0 5.0 0.00 0.01 0.00 67 1004.1
20260506095950 61 189 1.0 5.0 0.00 0.01 0.00 67 1004.1
20260506095850 60 189 1.0 5.0 0.00 0.01 0.00 66 1004.1
20260506095831 60 189 1.0 5.0 0.00 0.01 0.00 68 1004.1
20260506095747 60 188 1.0 5.0 0.00 0.01 0.00 68 1004.0
20260506095645 60 130 1.0 3.0 0.00 0.01 0.00 68 1004.1
20260506095545 60 129 1.0 3.0 0.00 0.01 0.00 67 1004.1
20260506095445 60 129 1.0 3.0 0.00 0.01 0.00 68 1004.1
20260506095345 60 129 1.0 3.0 0.00 0.01 0.00 66 1004.1
20260506095332 60 127 1.0 4.0 0.00 0.01 0.00 66 1004.1
20260506095246 60 127 1.0 4.0 0.00 0.01 0.00 67 1004.0
20260506095146 60 126 1.0 4.0 0.00 0.01 0.00 66 1004.0
20260506095051 60 127 1.0 4.0 0.00 0.01 0.00 66 1004.0
20260506095047 60 136 1.0 4.0 0.00 0.01 0.00 66 1004.0
20260506095043 60 136 1.0 4.0 0.00 0.01 0.00 66 1003.9
20260506094744 60 135 1.0 4.0 0.00 0.01 0.00 65 1003.9
20260506094644 60 135 1.0 4.0 0.00 0.01 0.00 66 1003.9
20260506094543 60 135 1.0 7.0 0.00 0.01 0.00 66 1003.9
20260506094444 60 135 1.0 7.0 0.00 0.01 0.00 64 1003.9
20260506094331 60 136 1.0 7.0 0.00 0.01 0.00 65 1003.9
20260506094244 60 136 2.0 7.0 0.00 0.01 0.00 65 1003.9
20260506094144 60 136 2.0 7.0 0.00 0.01 0.00 65 1004.0
20260506094055 60 151 2.0 7.0 0.00 0.01 0.00 64 1004.0
20260506094051 60 136 2.0 7.0 0.00 0.01 0.00 64 1003.9
20260506094047 60 135 2.0 7.0 0.00 0.01 0.00 65 1003.9
20260506094042 60 150 2.0 7.0 0.00 0.01 0.00 64 1004.0
20260506093823 60 100 2.0 6.0 0.00 0.01 0.00 63 1004.0
20260506093819 60 106 2.0 7.0 0.00 0.01 0.00 64 1004.0
20260506093815 60 98 2.0 7.0 0.00 0.01 0.00 64 1004.0
20260506093550 60 95 2.0 6.0 0.00 0.01 0.00 63 1003.9
20260506093545 60 95 2.0 6.0 0.00 0.01 0.00 63 1003.9
20260506093541 60 100 2.0 6.0 0.00 0.01 0.00 63 1004.0
20260506093239 60 98 2.0 4.0 0.00 0.01 0.00 64 1004.0
20260506093140 60 96 1.0 4.0 0.00 0.01 0.00 63 1003.9
20260506093040 60 88 1.0 4.0 0.00 0.01 0.00 63 1004.0
20260506092940 60 88 1.0 4.0 0.00 0.01 0.00 64 1003.9
20260506092831 60 93 1.0 4.0 0.00 0.01 0.00 67 1004.0
20260506092740 60 97 1.0 4.0 0.00 0.01 0.00 67 1004.0
20260506092639 60 124 1.0 4.0 0.00 0.01 0.00 65 1004.0
20260506092554 60 105 1.0 4.0 0.00 0.01 0.00 64 1004.1
20260506092550 60 110 1.0 3.0 0.00 0.01 0.00 65 1004.0
20260506092545 60 111 1.0 4.0 0.00 0.01 0.00 65 1004.0
20260506092541 60 105 1.0 4.0 0.00 0.01 0.00 66 1004.1
20260506092239 60 96 0.0 4.0 0.00 0.01 0.00 66 1004.0
20260506092139 60 91 0.0 4.0 0.00 0.01 0.00 66 1004.1
20260506092039 60 91 0.0 4.0 0.00 0.01 0.00 65 1004.1
20260506091940 60 91 0.0 4.0 0.00 0.01 0.00 66 1004.1
20260506091832 60 92 0.0 4.0 0.00 0.01 0.00 67 1004.1
20260506091736 60 91 1.0 4.0 0.00 0.01 0.00 67 1004.1
20260506091636 59 90 1.0 4.0 0.00 0.01 0.00 66 1004.1
20260506091535 60 89 1.0 4.0 0.00 0.01 0.00 69 1004.1
20260506091435 59 275 1.0 3.0 0.00 0.01 0.00 69 1004.1
20260506091331 59 275 1.0 3.0 0.00 0.01 0.00 70 1004.1
20260506091235 59 275 1.0 4.0 0.00 0.01 0.00 69 1004.1
20260506091135 59 275 1.0 4.0 0.00 0.01 0.00 68 1004.2
20260506091036 59 275 1.0 4.0 0.00 0.01 0.00 68 1004.2
20260506090936 59 275 1.0 4.0 0.00 0.01 0.00 69 1004.2
20260506090831 59 275 1.0 4.0 0.00 0.01 0.00 69 1004.2
20260506090736 59 275 2.0 4.0 0.00 0.01 0.00 70 1004.2
20260506090635 59 275 2.0 4.0 0.00 0.01 0.00 69 1004.2
20260506090535 59 275 1.0 4.0 0.00 0.01 0.00 69 1004.2
20260506090436 59 297 1.0 4.0 0.00 0.01 0.00 69 1004.1
20260506090332 59 297 1.0 4.0 0.00 0.01 0.00 70 1004.1
20260506090236 59 302 1.0 3.0 0.00 0.01 0.00 70 1004.1
20260506090135 59 302 1.0 3.0 0.00 0.01 0.00 70 1004.1
20260506090036 59 304 2.0 3.0 0.00 0.01 0.00 69 1004.1
20260506085936 59 305 2.0 3.0 0.00 0.01 0.00 69 1004.1
20260506085832 59 305 2.0 3.0 0.00 0.01 0.00 69 1004.0
20260506085731 59 304 1.0 3.0 0.00 0.01 0.00 69 1004.0
20260506085631 59 303 1.0 3.0 0.00 0.01 0.00 69 1004.0
20260506085532 58 303 1.0 3.0 0.00 0.01 0.00 69 1004.0
20260506085432 58 302 1.0 3.0 0.00 0.01 0.00 69 1004.1
20260506085332 58 302 1.0 3.0 0.00 0.01 0.00 69 1004.1
20260506085232 58 302 1.0 3.0 0.00 0.01 0.00 69 1004.1
20260506085132 58 302 1.0 3.0 0.00 0.01 0.00 69 1004.1
20260506085031 58 303 1.0 2.0 0.00 0.01 0.00 69 1004.1
20260506084932 58 71 1.0 3.0 0.00 0.01 0.00 68 1004.2
20260506084832 58 73 1.0 3.0 0.00 0.01 0.00 69 1004.2
20260506084732 58 71 1.0 3.0 0.00 0.01 0.00 69 1004.1
20260506084632 58 71 1.0 3.0 0.00 0.01 0.00 69 1004.2
20260506084532 58 71 1.0 3.0 0.00 0.01 0.00 70 1004.2
20260506084431 58 71 1.0 4.0 0.00 0.01 0.00 71 1004.2
20260506084331 58 71 1.0 4.0 0.00 0.01 0.00 70 1004.1
20260506084232 58 71 1.0 4.0 0.00 0.01 0.00 70 1004.1
20260506084131 58 71 1.0 4.0 0.00 0.01 0.00 70 1004.1
20260506084048 58 71 1.0 4.0 0.00 0.01 0.00 70 1004.1
20260506084044 58 71 1.0 4.0 0.00 0.01 0.00 70 1004.1
20260506084040 58 71 1.0 4.0 0.00 0.01 0.00 71 1004.1
20260506083729 58 71 1.0 4.0 0.00 0.01 0.00 70 1004.2
20260506083629 58 71 1.0 4.0 0.00 0.01 0.00 70 1004.2
20260506083529 58 71 1.0 4.0 0.00 0.01 0.00 72 1004.2
20260506083429 58 74 1.0 4.0 0.00 0.01 0.00 72 1004.2
20260506083329 58 346 1.0 4.0 0.00 0.01 0.00 71 1004.3
20260506083229 58 315 1.0 3.0 0.00 0.01 0.00 72 1004.3
20260506083129 58 315 0.0 2.0 0.00 0.01 0.00 72 1004.3
20260506083029 58 315 1.0 2.0 0.00 0.01 0.00 73 1004.3
20260506082929 58 315 1.0 3.0 0.00 0.01 0.00 72 1004.3
20260506082829 58 315 1.0 3.0 0.00 0.01 0.00 71 1004.3
20260506082729 58 315 1.0 3.0 0.00 0.01 0.00 70 1004.3
20260506082629 58 315 1.0 3.0 0.00 0.01 0.00 70 1004.3
20260506082529 58 315 1.0 3.0 0.00 0.01 0.00 70 1004.2
20260506082429 58 315 1.0 3.0 0.00 0.01 0.00 70 1004.3
20260506082328 58 315 1.0 3.0 0.00 0.01 0.00 70 1004.3
20260506082228 58 315 1.0 3.0 0.00 0.01 0.00 71 1004.3
20260506082129 58 315 2.0 3.0 0.00 0.01 0.00 72 1004.2
20260506082029 58 315 2.0 3.0 0.00 0.01 0.00 72 1004.3
20260506081929 57 315 1.0 3.0 0.00 0.01 0.00 73 1004.3
20260506081829 57 315 1.0 3.0 0.00 0.01 0.00 73 1004.2
20260506081729 57 315 1.0 3.0 0.00 0.01 0.00 74 1004.3
20260506081629 57 325 1.0 3.0 0.00 0.01 0.00 74 1004.2
20260506081551 57 325 1.0 3.0 0.00 0.01 0.00 74 1004.2
20260506081543 57 325 1.0 3.0 0.00 0.01 0.00 74 1004.2
20260506081539 57 325 1.0 3.0 0.00 0.01 0.00 74 1004.2
20260506081228 57 325 1.0 3.0 0.00 0.01 0.00 74 1004.2
20260506081129 57 325 1.0 3.0 0.00 0.01 0.00 74 1004.2
20260506081031 57 323 1.0 3.0 0.00 0.01 0.00 74 1004.2
20260506080929 57 323 1.0 4.0 0.00 0.01 0.00 74 1004.2
20260506080830 57 323 1.0 4.0 0.00 0.01 0.00 74 1004.2
20260506080730 57 323 1.0 4.0 0.00 0.01 0.00 74 1004.2
20260506080629 57 324 1.0 4.0 0.00 0.01 0.00 74 1004.2
20260506080529 57 9 2.0 4.0 0.00 0.01 0.00 74 1004.2
20260506080429 57 9 2.0 4.0 0.00 0.01 0.00 74 1004.2
20260506080330 57 9 1.0 4.0 0.00 0.01 0.00 74 1004.2
20260506080230 56 9 1.0 4.0 0.00 0.01 0.00 74 1004.1
20260506080130 56 9 1.0 4.0 0.00 0.01 0.00 75 1004.1
20260506073521 55 120 0.0 1.0 0.00 0.01 0.00 77 1004.1
20260506073419 55 120 0.0 1.0 0.00 0.01 0.00 77 1004.1
20260506073329 55 119 0.0 1.0 0.00 0.01 0.00 77 1004.1
20260506073319 55 120 0.0 1.0 0.00 0.01 0.00 78 1004.1
20260506073219 55 120 0.0 1.0 0.00 0.01 0.00 78 1004.2
20260506073119 55 120 0.0 1.0 0.00 0.01 0.00 78 1004.2
20260506073100 55 119 0.0 1.0 0.00 0.01 0.00 79 1004.2
20260506073048 55 119 0.0 1.0 0.00 0.01 0.00 78 1004.2
20260506073040 55 119 0.0 1.0 0.00 0.01 0.00 79 1004.2
20260506072819 55 119 0.0 1.0 0.00 0.01 0.00 79 1004.2
20260506072719 55 119 0.0 1.0 0.00 0.01 0.00 80 1004.2
20260506072619 55 119 0.0 1.0 0.00 0.01 0.00 79 1004.3
20260506072517 55 119 0.0 2.0 0.00 0.01 0.00 79 1004.3
20260506072417 55 119 0.0 2.0 0.00 0.01 0.00 79 1004.4
20260506072315 55 119 0.0 2.0 0.00 0.01 0.00 80 1004.4
20260506072216 55 119 0.0 2.0 0.00 0.01 0.00 81 1004.4
20260506072113 54 119 0.0 2.0 0.00 0.01 0.00 81 1004.5
20260506072011 54 119 0.0 2.0 0.00 0.01 0.00 81 1004.5
20260506071911 54 119 0.0 2.0 0.00 0.01 0.00 81 1004.5
20260506071809 54 119 0.0 2.0 0.00 0.01 0.00 80 1004.5
20260506071709 54 119 0.0 2.0 0.00 0.01 0.00 81 1004.5
20260506071608 54 119 0.0 2.0 0.00 0.01 0.00 83 1004.5
20260506071510 54 119 0.0 1.0 0.00 0.01 0.00 82 1004.5
20260506071405 54 119 0.0 1.0 0.00 0.01 0.00 83 1004.5
20260506071303 54 119 0.0 1.0 0.00 0.01 0.00 83 1004.5
20260506071203 54 119 0.0 1.0 0.00 0.01 0.00 82 1004.5
20260506071104 54 119 0.0 1.0 0.00 0.01 0.00 82 1004.5
20260506071100 54 119 0.0 1.0 0.00 0.01 0.00 83 1004.5
20260506071050 54 119 0.0 1.0 0.00 0.01 0.00 81 1004.4
20260506071042 54 119 0.0 1.0 0.00 0.01 0.00 81 1004.4
20260506070801 54 119 0.0 1.0 0.00 0.01 0.00 83 1004.5
20260506070701 54 119 0.0 1.0 0.00 0.01 0.00 83 1004.5
20260506070602 54 119 0.0 1.0 0.00 0.01 0.00 83 1004.4
20260506070506 54 119 0.0 1.0 0.00 0.01 0.00 83 1004.5
20260506070401 54 119 0.0 1.0 0.00 0.01 0.00 83 1004.5
20260506070301 53 119 0.0 1.0 0.00 0.01 0.00 83 1004.4
20260506070201 53 119 0.0 1.0 0.00 0.01 0.00 82 1004.5
20260506062501 52 105 0.0 3.0 0.00 0.01 0.00 85 1004.5
20260506062400 52 105 0.0 3.0 0.00 0.01 0.00 85 1004.5
20260506062300 52 105 0.0 3.0 0.00 0.01 0.00 85 1004.5
20260506062200 51 105 0.0 3.0 0.00 0.01 0.00 86 1004.5
20260506062101 51 105 0.0 3.0 0.00 0.01 0.00 86 1004.5
20260506062001 51 105 1.0 3.0 0.00 0.01 0.00 86 1004.5
20260506061901 51 105 1.0 3.0 0.00 0.01 0.00 86 1004.5
20260506061801 51 105 1.0 3.0 0.00 0.01 0.00 86 1004.5
20260506061701 51 105 1.0 3.0 0.00 0.01 0.00 86 1004.5
20260506061600 51 115 1.0 3.0 0.00 0.01 0.00 87 1004.5
20260506061500 51 115 1.0 3.0 0.00 0.01 0.00 86 1004.5
20260506061404 51 115 1.0 3.0 0.00 0.01 0.00 86 1004.6
20260506061329 51 116 1.0 3.0 0.00 0.01 0.00 86 1004.6
20260506061257 51 117 1.0 3.0 0.00 0.01 0.00 87 1004.6
20260506061155 51 117 1.0 3.0 0.00 0.01 0.00 87 1004.6
20260506061055 51 117 1.0 3.0 0.00 0.01 0.00 87 1004.7
20260506060955 51 117 1.0 3.0 0.00 0.01 0.00 87 1004.7
20260506060859 50 118 1.0 4.0 0.00 0.01 0.00 88 1004.7
20260506060829 50 118 1.0 4.0 0.00 0.01 0.00 87 1004.7
20260506060751 50 117 1.0 4.0 0.00 0.01 0.00 87 1004.6
20260506060649 50 117 2.0 4.0 0.00 0.01 0.00 87 1004.7
20260506060549 50 117 2.0 4.0 0.00 0.01 0.00 88 1004.6
20260506060449 50 117 2.0 4.0 0.00 0.01 0.00 88 1004.7
20260506060329 50 118 2.0 4.0 0.00 0.01 0.00 88 1004.6
20260506060243 50 133 2.0 4.0 0.00 0.01 0.00 88 1004.6
20260506060143 50 134 2.0 4.0 0.00 0.01 0.00 88 1004.6
20260506051315 46 109 0.0 2.0 0.00 0.01 0.00 92 1004.7
20260506051229 46 109 0.0 2.0 0.00 0.01 0.00 92 1004.7
20260506051129 46 109 0.0 1.0 0.00 0.01 0.00 92 1004.7
20260506050928 46 109 0.0 1.0 0.00 0.01 0.00 92 1004.7
20260506050813 46 109 0.0 1.0 0.00 0.01 0.00 92 1004.7
20260506050729 46 109 0.0 1.0 0.00 0.01 0.00 92 1004.7
20260506050629 46 109 0.0 1.0 0.00 0.01 0.00 92 1004.7
20260506050529 46 109 0.0 1.0 0.00 0.01 0.00 91 1004.7
20260506050429 46 109 0.0 1.0 0.00 0.01 0.00 91 1004.7
20260506050311 46 109 0.0 1.0 0.00 0.01 0.00 91 1004.7
20260506050229 46 109 0.0 1.0 0.00 0.01 0.00 91 1004.9
20260506050129 46 109 0.0 1.0 0.00 0.01 0.00 91 1004.9
20260506045129 45 109 1.0 2.0 0.00 0.01 0.00 90 1005.0
20260506045029 45 109 1.0 2.0 0.00 0.01 0.00 90 1005.0
20260506044929 45 109 1.0 2.0 0.00 0.01 0.00 90 1005.0
20260506044812 45 109 1.0 2.0 0.00 0.01 0.00 90 1005.0
20260506044729 45 109 0.0 2.0 0.00 0.01 0.00 90 1005.0
20260506044629 45 108 0.0 2.0 0.00 0.01 0.00 90 1005.0
20260506044529 45 108 0.0 2.0 0.00 0.01 0.00 90 1005.0
20260506044429 45 108 0.0 2.0 0.00 0.01 0.00 90 1005.0
20260506044329 45 108 0.0 2.0 0.00 0.01 0.00 90 1005.0
20260506044310 46 108 0.0 2.0 0.00 0.01 0.00 90 1005.0
20260506044229 46 108 0.0 2.0 0.00 0.01 0.00 89 1004.9
20260506044129 45 108 0.0 2.0 0.00 0.01 0.00 89 1004.9
20260506044030 46 108 0.0 2.0 0.00 0.01 0.00 89 1004.9
20260506043811 46 108 0.0 2.0 0.00 0.01 0.00 89 1004.9
20260506043727 46 108 0.0 2.0 0.00 0.01 0.00 89 1004.9
20260506043627 46 108 0.0 2.0 0.00 0.01 0.00 88 1004.9
20260506043524 46 108 0.0 1.0 0.00 0.01 0.00 88 1005.0
20260506043423 46 108 0.0 1.0 0.00 0.01 0.00 88 1005.0
20260506043311 46 108 0.0 1.0 0.00 0.01 0.00 88 1005.0
20260506043221 46 108 0.0 1.0 0.00 0.01 0.00 88 1005.1
20260506043120 46 108 0.0 2.0 0.00 0.01 0.00 87 1005.0
20260506043018 46 108 0.0 2.0 0.00 0.01 0.00 87 1005.0
20260506042919 46 108 0.0 2.0 0.00 0.01 0.00 87 1005.1
20260506042809 46 108 1.0 2.0 0.00 0.01 0.00 87 1005.1
20260506042717 46 108 1.0 2.0 0.00 0.01 0.00 87 1005.1
20260506042615 46 108 1.0 2.0 0.00 0.01 0.00 87 1005.1
20260506042513 46 108 1.0 2.0 0.00 0.01 0.00 88 1005.1
20260506042413 46 108 1.0 2.0 0.00 0.01 0.00 88 1005.1
20260506042311 47 108 1.0 2.0 0.00 0.01 0.00 88 1005.2
20260506042306 46 108 1.0 2.0 0.00 0.01 0.00 88 1005.2
20260506042211 47 108 1.0 3.0 0.00 0.01 0.00 88 1005.2
20260506042109 47 108 1.0 3.0 0.00 0.01 0.00 88 1005.1
20260506042006 47 108 1.0 3.0 0.00 0.01 0.00 88 1005.2
20260506041904 47 108 1.0 3.0 0.00 0.01 0.00 88 1005.2
20260506041805 47 108 1.0 3.0 0.00 0.01 0.00 88 1005.1
20260506041703 47 108 0.0 3.0 0.00 0.01 0.00 88 1005.1
20260506041602 47 108 0.0 3.0 0.00 0.01 0.00 87 1005.1
20260506041503 47 108 0.0 3.0 0.00 0.01 0.00 87 1005.1
20260506041401 47 108 0.0 3.0 0.00 0.01 0.00 87 1005.2
20260506041301 47 108 0.0 3.0 0.00 0.01 0.00 88 1005.2
20260506041201 47 100 0.0 2.0 0.00 0.01 0.00 88 1005.1
20260506041101 47 100 0.0 2.0 0.00 0.01 0.00 88 1005.1
20260506041020 47 99 0.0 1.0 0.00 0.01 0.00 88 1005.1
20260506041016 47 99 0.0 1.0 0.00 0.01 0.00 89 1005.0
20260506041012 47 99 0.0 1.0 0.00 0.01 0.00 89 1005.0
20260506040701 47 98 0.0 1.0 0.00 0.01 0.00 89 1005.0
20260506040601 47 98 0.0 1.0 0.00 0.01 0.00 89 1005.0
20260506040501 47 98 0.0 1.0 0.00 0.01 0.00 89 1005.0
20260506040401 47 98 0.0 1.0 0.00 0.01 0.00 89 1005.1
20260506040301 47 98 0.0 1.0 0.00 0.01 0.00 89 1005.0
20260506040201 47 98 0.0 1.0 0.00 0.01 0.00 89 1005.1
20260506040101 47 98 0.0 1.0 0.00 0.01 0.00 89 1005.1
20260506040001 47 98 0.0 2.0 0.00 0.01 0.00 89 1005.1
20260506035901 47 98 0.0 2.0 0.00 0.01 0.00 89 1005.1
20260506035800 47 98 0.0 2.0 0.00 0.01 0.00 89 1005.2
20260506035701 47 98 0.0 2.0 0.00 0.01 0.00 89 1005.2
20260506035601 47 98 0.0 2.0 0.00 0.01 0.00 89 1005.1
20260506035501 47 98 0.0 2.0 0.00 0.01 0.00 89 1005.1
20260506035401 47 98 0.0 2.0 0.00 0.01 0.00 89 1005.1
20260506035300 47 98 0.0 2.0 0.00 0.01 0.00 89 1005.1
20260506035254 47 98 0.0 2.0 0.00 0.01 0.00 89 1005.1
20260506035200 47 98 0.0 2.0 0.00 0.01 0.00 89 1005.1
20260506035100 47 98 0.0 2.0 0.00 0.01 0.00 89 1005.1
20260506035006 47 99 0.0 1.0 0.00 0.01 0.00 89 1005.3
20260506035001 47 99 0.0 2.0 0.00 0.01 0.00 89 1005.2
20260506034901 47 99 0.0 2.0 0.00 0.01 0.00 89 1005.2
20260506034801 47 99 0.0 1.0 0.00 0.01 0.00 89 1005.2
20260506034701 47 99 0.0 1.0 0.00 0.01 0.00 89 1005.3
20260506034600 47 99 0.0 1.0 0.00 0.01 0.00 89 1005.3
20260506034500 47 99 0.0 0.0 0.00 0.01 0.00 89 1005.3
20260506034401 47 99 0.0 0.0 0.00 0.01 0.00 89 1005.3
20260506034301 47 99 0.0 0.0 0.00 0.01 0.00 89 1005.4
20260506034243 47 99 0.0 1.0 0.00 0.01 0.00 89 1005.4
20260506034201 47 99 0.0 1.0 0.00 0.01 0.00 89 1005.4
20260506034105 47 99 0.0 1.0 0.00 0.01 0.00 89 1005.4
20260506034006 47 99 0.0 1.0 0.00 0.01 0.00 89 1005.3
20260506034001 47 100 0.0 1.0 0.00 0.01 0.00 89 1005.4
20260506033957 47 99 0.0 1.0 0.00 0.01 0.00 89 1005.4
20260506033953 47 99 0.0 1.0 0.00 0.01 0.00 89 1005.3
20260506033701 47 99 0.0 1.0 0.00 0.01 0.00 89 1005.3
20260506033601 47 99 0.0 1.0 0.00 0.01 0.00 89 1005.3
20260506033501 47 99 0.0 1.0 0.00 0.01 0.00 89 1005.4
20260506033401 47 99 0.0 1.0 0.00 0.01 0.00 89 1005.4
20260506033301 47 99 0.0 1.0 0.00 0.01 0.00 89 1005.4
20260506033243 47 99 0.0 1.0 0.00 0.01 0.00 89 1005.4
20260506033201 47 99 0.0 1.0 0.00 0.01 0.00 89 1005.4
20260506033100 47 99 0.0 1.0 0.00 0.01 0.00 89 1005.4
20260506033001 47 99 0.0 1.0 0.00 0.01 0.00 89 1005.4
20260506032901 47 99 0.0 1.0 0.00 0.01 0.00 89 1005.4
20260506032801 47 99 0.0 1.0 0.00 0.01 0.00 89 1005.5
20260506032740 47 100 0.0 1.0 0.00 0.01 0.00 89 1005.4
20260506032701 47 99 0.0 1.0 0.00 0.01 0.00 89 1005.4
20260506032601 47 99 0.0 2.0 0.00 0.01 0.00 89 1005.4
20260506032501 47 99 0.0 2.0 0.00 0.01 0.00 89 1005.5
20260506032401 47 99 0.0 2.0 0.00 0.01 0.00 89 1005.5
20260506032254 47 99 0.0 2.0 0.00 0.01 0.00 89 1005.5
20260506032242 47 100 0.0 2.0 0.00 0.01 0.00 89 1005.5
20260506032055 47 99 0.0 2.0 0.00 0.01 0.00 89 1005.6
20260506031954 47 100 0.0 2.0 0.00 0.01 0.00 89 1005.6
20260506031854 47 99 0.0 2.0 0.00 0.01 0.00 89 1005.6
20260506031741 47 99 0.0 2.0 0.00 0.01 0.00 89 1005.6
20260506031651 47 99 0.0 2.0 0.00 0.01 0.00 89 1005.6
20260506031551 47 99 0.0 2.0 0.00 0.01 0.00 89 1005.6
20260506031450 47 99 0.0 2.0 0.00 0.01 0.00 89 1005.7
20260506031348 47 99 0.0 2.0 0.00 0.01 0.00 89 1005.7
20260506031241 47 99 0.0 2.0 0.00 0.01 0.00 89 1005.7
20260506031147 47 99 0.0 2.0 0.00 0.01 0.00 89 1005.7
20260506031047 47 99 0.0 2.0 0.00 0.01 0.00 89 1005.7
20260506030944 47 98 0.0 2.0 0.00 0.01 0.00 89 1005.8
20260506030842 47 98 0.0 2.0 0.00 0.01 0.00 89 1005.7
20260506030742 47 99 0.0 2.0 0.00 0.01 0.00 89 1005.7
20260506030640 47 98 0.0 2.0 0.00 0.01 0.00 89 1005.7
20260506030541 47 99 0.0 2.0 0.00 0.01 0.00 89 1005.7
20260506030501 47 99 0.0 1.0 0.00 0.01 0.00 89 1005.7
20260506030456 47 99 0.0 1.0 0.00 0.01 0.00 89 1005.7
20260506030452 47 98 0.0 1.0 0.00 0.01 0.00 89 1005.7
20260506030236 47 98 0.0 1.0 0.00 0.01 0.00 89 1005.7
20260506030136 47 99 0.0 1.0 0.00 0.01 0.00 89 1005.7
20260506030037 47 98 0.0 1.0 0.00 0.01 0.00 89 1005.7
20260506025935 47 98 0.0 1.0 0.00 0.01 0.00 89 1005.7
20260506025835 47 98 0.0 1.0 0.00 0.01 0.00 89 1005.6
20260506025735 47 98 0.0 1.0 0.00 0.01 0.00 89 1005.7
20260506025634 47 98 0.0 1.0 0.00 0.01 0.00 89 1005.7
20260506025532 47 98 0.0 1.0 0.00 0.01 0.00 89 1005.7
20260506025433 47 98 0.0 1.0 0.00 0.01 0.00 89 1005.7
20260506025333 47 98 0.0 1.0 0.00 0.01 0.00 89 1005.8
20260506025233 47 98 0.0 1.0 0.00 0.01 0.00 89 1005.8
20260506025132 47 98 0.0 1.0 0.00 0.01 0.00 89 1005.8
20260506025032 47 98 0.0 1.0 0.00 0.01 0.00 89 1005.8
20260506024931 47 98 0.0 2.0 0.00 0.01 0.00 89 1005.7
20260506024831 47 98 0.0 2.0 0.00 0.01 0.00 89 1005.7
20260506024730 47 98 0.0 2.0 0.00 0.01 0.00 89 1005.7
20260506024629 47 98 0.0 2.0 0.00 0.01 0.00 89 1005.8
20260506024529 47 99 0.0 2.0 0.00 0.01 0.00 89 1005.8
20260506024429 47 99 1.0 2.0 0.00 0.01 0.00 89 1005.8
20260506024329 47 98 1.0 2.0 0.00 0.01 0.00 89 1005.8
20260506024226 47 98 1.0 2.0 0.00 0.01 0.00 89 1005.8
20260506024126 47 99 1.0 2.0 0.00 0.01 0.00 89 1005.8
20260506024024 47 98 1.0 3.0 0.00 0.01 0.00 89 1005.8
20260506023925 47 98 1.0 3.0 0.00 0.01 0.00 88 1005.8
20260506023825 47 109 1.0 3.0 0.00 0.01 0.00 89 1005.8
20260506023735 47 111 1.0 3.0 0.00 0.01 0.00 89 1005.9
20260506023725 47 112 1.0 3.0 0.00 0.01 0.00 89 1005.9
20260506023625 47 122 1.0 3.0 0.00 0.01 0.00 89 1005.8
20260506023524 47 126 1.0 3.0 0.00 0.01 0.00 89 1005.9
20260506023422 47 113 1.0 3.0 0.00 0.01 0.00 89 1005.9
20260506023322 47 113 1.0 3.0 0.00 0.01 0.00 90 1005.9
20260506023222 47 112 1.0 3.0 0.00 0.01 0.00 89 1005.9
20260506023123 47 113 1.0 3.0 0.00 0.01 0.00 89 1006.0
20260506023021 47 111 1.0 3.0 0.00 0.01 0.00 89 1005.9
20260506022920 47 109 1.0 3.0 0.00 0.01 0.00 89 1006.0
20260506022820 47 109 1.0 2.0 0.00 0.01 0.00 90 1006.0
20260506022720 47 111 1.0 2.0 0.00 0.01 0.00 90 1005.9
20260506022620 47 111 1.0 2.0 0.00 0.01 0.00 90 1006.0
20260506022519 47 111 1.0 2.0 0.00 0.01 0.00 90 1006.0
20260506022419 47 111 1.0 2.0 0.00 0.01 0.00 90 1006.0
20260506022315 47 111 1.0 2.0 0.00 0.01 0.00 90 1006.0
20260506022215 47 111 0.0 2.0 0.00 0.01 0.00 90 1006.0
20260506022114 47 111 0.0 2.0 0.00 0.01 0.00 90 1005.9
20260506022014 47 111 0.0 2.0 0.00 0.01 0.00 90 1005.9
20260506021949 46 111 0.0 1.0 0.00 0.01 0.00 90 1005.7
20260506021944 47 111 0.0 2.0 0.00 0.01 0.00 90 1005.8
20260506021940 47 111 0.0 2.0 0.00 0.01 0.00 90 1005.8
20260506021715 47 111 0.0 1.0 0.00 0.01 0.00 90 1005.7
20260506021614 47 111 0.0 1.0 0.00 0.01 0.00 90 1005.7
20260506021514 47 111 0.0 1.0 0.00 0.01 0.00 90 1005.7
20260506021414 47 111 0.0 2.0 0.00 0.01 0.00 90 1005.7
20260506021314 47 111 0.0 2.0 0.00 0.01 0.00 90 1005.7
20260506021215 47 111 0.0 2.0 0.00 0.01 0.00 90 1005.7
20260506021115 47 111 0.0 2.0 0.00 0.01 0.00 90 1005.8
20260506021015 47 111 0.0 2.0 0.00 0.01 0.00 90 1005.8
20260506020953 47 109 0.0 2.0 0.00 0.01 0.00 90 1005.8
20260506020944 47 111 0.0 2.0 0.00 0.01 0.00 90 1005.8
20260506020940 47 109 0.0 2.0 0.00 0.01 0.00 90 1005.8
20260506020715 47 108 0.0 2.0 0.00 0.01 0.00 90 1005.8
20260506020615 47 108 0.0 2.0 0.00 0.01 0.00 90 1005.9
20260506020515 47 108 0.0 2.0 0.00 0.01 0.00 90 1005.9
20260506020410 47 108 0.0 2.0 0.00 0.01 0.00 90 1005.9
20260506020310 47 108 0.0 2.0 0.00 0.01 0.00 90 1005.9
20260506020211 47 108 0.0 2.0 0.00 0.01 0.00 90 1005.9
20260506020111 47 109 0.0 2.0 0.00 0.01 0.00 90 1006.0
20260506020011 47 109 0.0 2.0 0.00 0.01 0.00 89 1006.0
20260506015910 47 109 0.0 2.0 0.00 0.01 0.00 89 1006.0
20260506015810 47 107 1.0 3.0 0.00 0.01 0.00 89 1006.0
20260506015711 47 107 1.0 3.0 0.00 0.01 0.00 89 1006.0
20260506015610 47 107 1.0 3.0 0.00 0.01 0.00 89 1006.0
20260506015510 47 107 1.0 3.0 0.00 0.01 0.00 89 1006.0
20260506015411 47 107 1.0 3.0 0.00 0.01 0.00 89 1006.1
20260506015310 47 107 1.0 3.0 0.00 0.01 0.00 90 1006.1
20260506015210 47 107 1.0 3.0 0.00 0.01 0.00 90 1006.1
20260506015111 47 107 1.0 3.0 0.00 0.01 0.00 90 1006.0
20260506015011 47 107 1.0 3.0 0.00 0.01 0.00 90 1006.0
20260506014911 47 107 1.0 3.0 0.00 0.01 0.00 90 1006.0
20260506014811 47 109 1.0 3.0 0.00 0.01 0.00 90 1006.0
20260506014729 47 109 1.0 3.0 0.00 0.01 0.00 90 1006.0
20260506014710 47 111 1.0 3.0 0.00 0.01 0.00 90 1006.0
20260506014610 47 111 1.0 3.0 0.00 0.01 0.00 90 1006.0
20260506014506 47 111 1.0 3.0 0.00 0.01 0.00 90 1005.9
20260506014456 47 115 0.0 2.0 0.00 0.01 0.00 90 1006.0
20260506014445 47 114 1.0 2.0 0.00 0.01 0.00 90 1005.9
20260506014441 47 115 0.0 2.0 0.00 0.01 0.00 90 1005.9
20260506014207 47 115 0.0 2.0 0.00 0.01 0.00 90 1006.0
20260506014106 47 115 0.0 2.0 0.00 0.01 0.00 90 1005.9
20260506014006 47 115 0.0 2.0 0.00 0.01 0.00 90 1006.0
20260506013957 47 115 0.0 2.0 0.00 0.01 0.00 89 1005.9
20260506013946 47 115 0.0 2.0 0.00 0.01 0.00 90 1005.9
20260506013942 47 115 0.0 2.0 0.00 0.01 0.00 89 1005.9
20260506013707 47 115 0.0 2.0 0.00 0.01 0.00 89 1005.9
20260506013607 47 115 0.0 2.0 0.00 0.01 0.00 89 1005.9
20260506013507 47 115 0.0 2.0 0.00 0.01 0.00 89 1005.9
20260506013455 47 115 0.0 2.0 0.00 0.01 0.00 89 1005.8
20260506013445 47 115 0.0 2.0 0.00 0.01 0.00 89 1005.9
20260506013441 47 115 0.0 2.0 0.00 0.01 0.00 89 1005.9
20260506013206 47 115 0.0 2.0 0.00 0.01 0.00 89 1005.8
20260506013106 47 115 1.0 2.0 0.00 0.01 0.00 89 1005.9
20260506013006 47 115 1.0 2.0 0.00 0.01 0.00 89 1005.9
20260506012907 47 115 1.0 2.0 0.00 0.01 0.00 89 1006.0
20260506012807 47 115 1.0 2.0 0.00 0.01 0.00 89 1006.0
20260506012707 47 115 1.0 2.0 0.00 0.01 0.00 89 1006.0
20260506012602 47 115 1.0 2.0 0.00 0.01 0.00 89 1006.0
20260506012502 47 117 1.0 2.0 0.00 0.01 0.00 89 1006.0
20260506012453 47 117 1.0 2.0 0.00 0.01 0.00 89 1006.0
20260506012443 47 117 1.0 2.0 0.00 0.01 0.00 89 1006.1
20260506012439 47 117 1.0 2.0 0.00 0.01 0.00 89 1006.0
20260506012203 47 117 1.0 2.0 0.00 0.01 0.00 89 1006.0
20260506012103 47 117 1.0 2.0 0.00 0.01 0.00 89 1006.0
20260506012003 47 117 1.0 3.0 0.00 0.01 0.00 88 1006.1
20260506011902 47 117 1.0 4.0 0.00 0.01 0.00 88 1006.1
20260506011801 47 117 1.0 4.0 0.00 0.01 0.00 89 1006.2
20260506011702 47 117 1.0 4.0 0.00 0.01 0.00 89 1006.1
20260506011602 47 117 1.0 4.0 0.00 0.01 0.00 89 1006.2
20260506011500 47 117 1.0 4.0 0.00 0.01 0.00 89 1006.2
20260506011401 47 117 1.0 4.0 0.00 0.01 0.00 89 1006.2
20260506011300 47 117 1.0 4.0 0.00 0.01 0.00 89 1006.2
20260506011230 47 117 1.0 4.0 0.00 0.01 0.00 89 1006.2
20260506011200 47 119 1.0 4.0 0.00 0.01 0.00 89 1006.2
20260506011100 47 119 1.0 4.0 0.00 0.01 0.00 89 1006.2
20260506011001 48 135 1.0 4.0 0.00 0.01 0.00 89 1006.3
20260506010901 48 144 1.0 3.0 0.00 0.01 0.00 90 1006.3
20260506010801 48 145 1.0 3.0 0.00 0.01 0.00 90 1006.3
20260506010729 48 145 1.0 3.0 0.00 0.01 0.00 90 1006.3
20260506010700 48 146 1.0 2.0 0.00 0.01 0.00 89 1006.3
20260506010600 48 148 1.0 2.0 0.00 0.01 0.00 89 1006.3
20260506010501 48 148 1.0 2.0 0.00 0.01 0.00 89 1006.3
20260506010400 48 148 1.0 3.0 0.00 0.01 0.00 89 1006.3
20260506010301 48 148 1.0 3.0 0.00 0.01 0.00 89 1006.2
20260506010201 48 148 1.0 3.0 0.00 0.01 0.00 89 1006.3
20260506010001 48 148 1.0 3.0 0.00 0.01 0.00 89 1006.2
20260506005900 48 148 1.0 3.0 0.00 0.01 0.00 89 1006.2
20260506005800 48 148 1.0 3.0 0.00 0.01 0.00 89 1006.2
20260506005700 48 148 1.0 3.0 0.00 0.01 0.00 89 1006.1
20260506005600 48 149 1.0 3.0 0.00 0.01 0.00 89 1006.1
20260506005501 48 148 1.0 3.0 0.00 0.01 0.00 89 1006.2
20260506005401 48 157 0.0 2.0 0.00 0.01 0.00 89 1006.2
20260506005301 48 157 0.0 2.0 0.00 0.01 0.00 89 1006.2
20260506005201 48 157 0.0 2.0 0.00 0.01 0.00 89 1006.2
20260506005100 48 157 0.0 2.0 0.00 0.01 0.00 89 1006.2
20260506005000 48 157 0.0 1.0 0.00 0.01 0.00 89 1006.2
20260506004952 48 157 0.0 2.0 0.00 0.01 0.00 88 1006.2
20260506004944 48 157 0.0 1.0 0.00 0.01 0.00 89 1006.2
20260506004940 48 157 0.0 1.0 0.00 0.01 0.00 88 1006.2
20260506004718 48 162 0.0 2.0 0.00 0.01 0.00 89 1006.2
20260506004712 48 157 0.0 2.0 0.00 0.01 0.00 88 1006.2
20260506004708 48 157 0.0 2.0 0.00 0.01 0.00 89 1006.2
20260506004704 48 157 0.0 2.0 0.00 0.01 0.00 89 1006.1
20260506004443 48 157 0.0 2.0 0.00 0.01 0.00 89 1006.1
20260506004439 48 157 0.0 2.0 0.00 0.01 0.00 89 1006.1
20260506004220 49 163 0.0 2.0 0.00 0.01 0.00 89 1006.1
20260506004213 49 162 0.0 2.0 0.00 0.01 0.00 89 1006.2
20260506004209 48 163 0.0 2.0 0.00 0.01 0.00 89 1006.1
20260506004205 48 162 0.0 2.0 0.00 0.01 0.00 89 1006.1
20260506003946 49 162 0.0 2.0 0.00 0.01 0.00 89 1006.1
20260506003942 49 162 0.0 2.0 0.00 0.01 0.00 89 1006.1
20260506003653 49 163 0.0 2.0 0.00 0.01 0.00 89 1006.1
20260506003553 49 163 0.0 2.0 0.00 0.01 0.00 88 1006.1
20260506003451 49 178 0.0 2.0 0.00 0.01 0.00 88 1006.1
20260506003443 49 178 0.0 2.0 0.00 0.01 0.00 88 1006.1
20260506003439 49 178 0.0 2.0 0.00 0.01 0.00 88 1006.1
20260506003142 49 178 0.0 2.0 0.00 0.01 0.00 88 1006.2
20260506003042 49 178 0.0 2.0 0.00 0.01 0.00 88 1006.2
20260506002941 49 178 1.0 2.0 0.00 0.01 0.00 88 1006.2
20260506002841 49 178 1.0 2.0 0.00 0.01 0.00 88 1006.2
20260506002728 49 178 1.0 2.0 0.00 0.01 0.00 88 1006.2
20260506002636 49 178 1.0 2.0 0.00 0.01 0.00 87 1006.2
20260506002536 49 178 1.0 2.0 0.00 0.01 0.00 87 1006.2
20260506002436 49 178 1.0 2.0 0.00 0.01 0.00 87 1006.2
20260506002336 49 178 1.0 2.0 0.00 0.01 0.00 88 1006.2
20260506002230 49 179 1.0 2.0 0.00 0.01 0.00 87 1006.2
20260506002133 49 179 1.0 2.0 0.00 0.01 0.00 87 1006.2
20260506002032 49 179 0.0 2.0 0.00 0.01 0.00 87 1006.2
20260506001829 50 179 0.0 2.0 0.00 0.01 0.00 87 1006.3
20260506001729 50 179 0.0 2.0 0.00 0.01 0.00 87 1006.3
20260506001629 50 179 0.0 2.0 0.00 0.01 0.00 87 1006.3
20260506001456 50 179 0.0 1.0 0.00 0.01 0.00 87 1006.4
20260506001451 50 179 0.0 2.0 0.00 0.01 0.00 87 1006.3
20260506001442 50 179 0.0 2.0 0.00 0.01 0.00 87 1006.3
20260506001228 50 179 0.0 1.0 0.00 0.01 0.00 87 1006.4
20260506001128 50 178 0.0 0.0 0.00 0.01 0.00 87 1006.4
20260506001027 50 179 0.0 0.0 0.00 0.01 0.00 87 1006.4
20260506000927 50 179 0.0 0.0 0.00 0.01 0.00 87 1006.4
20260506000826 50 178 0.0 0.0 0.00 0.01 0.00 87 1006.4
20260506000724 50 178 0.0 0.0 0.00 0.01 0.00 87 1006.4
20260506000622 50 178 0.0 0.0 0.00 0.01 0.00 87 1006.5
20260506000518 50 178 0.0 0.0 0.00 0.01 0.00 87 1006.5
20260506000417 50 178 0.0 0.0 0.00 0.01 0.00 87 1006.5
20260506000317 50 178 0.0 0.0 0.00 0.01 0.00 87 1006.7
20260506000229 50 178 0.0 1.0 0.00 0.01 0.00 87 1006.7
20260506000219 50 178 0.0 2.0 0.00 0.01 0.00 87 1006.7
20260506000115 50 178 0.0 2.0 0.00 0.01 0.00 87 1006.7
20260506000016 50 178 0.0 2.0 0.00 0.01 0.00 87 1006.7
20260505235914 50 178 0.0 2.0 0.00 0.01 0.00 87 1006.5
20260505235814 50 178 0.0 2.0 0.00 0.01 0.00 87 1006.7
20260505235712 50 178 0.0 2.0 0.00 0.01 0.00 87 1006.5
20260505235610 50 178 0.0 2.0 0.00 0.01 0.00 87 1006.5
20260505235506 50 178 0.0 2.0 0.00 0.01 0.00 87 1006.5
20260505235405 51 178 0.0 2.0 0.00 0.01 0.00 87 1006.7
20260505235305 51 178 0.0 2.0 0.00 0.01 0.00 87 1006.5
20260505235204 51 178 0.0 2.0 0.00 0.01 0.00 87 1006.7
20260505235103 51 178 0.0 2.0 0.00 0.01 0.00 87 1006.7
20260505235002 51 178 0.0 1.0 0.00 0.01 0.00 87 1006.7
20260505234951 51 178 0.0 1.0 0.00 0.01 0.00 86 1006.7
20260505234901 51 178 0.0 1.0 0.00 0.01 0.00 87 1006.5
20260505234802 51 178 0.0 1.0 0.00 0.01 0.00 87 1006.5
20260505234702 51 178 0.0 1.0 0.00 0.01 0.00 86 1006.7
20260505234602 51 178 0.0 1.0 0.00 0.01 0.00 86 1006.5
20260505234501 51 178 0.0 1.0 0.00 0.01 0.00 86 1006.7
20260505234401 51 178 0.0 1.0 0.00 0.01 0.00 86 1006.7
20260505234301 51 178 0.0 1.0 0.00 0.01 0.00 86 1006.7
20260505234201 51 178 0.0 1.0 0.00 0.01 0.00 86 1006.7
20260505234101 51 178 0.0 1.0 0.00 0.01 0.00 86 1006.7
20260505234001 51 178 0.0 1.0 0.00 0.01 0.00 86 1006.7
20260505233901 51 178 0.0 1.0 0.00 0.01 0.00 86 1006.7
20260505233801 51 178 0.0 3.0 0.00 0.01 0.00 86 1006.7
20260505233701 51 178 0.0 3.0 0.00 0.01 0.00 86 1006.7
20260505233601 51 178 1.0 3.0 0.00 0.01 0.00 86 1006.7
20260505233500 51 178 1.0 3.0 0.00 0.01 0.00 86 1006.8
20260505233401 51 178 1.0 3.0 0.00 0.01 0.00 86 1006.7
20260505233300 51 178 1.0 3.0 0.00 0.01 0.00 86 1006.8
20260505233229 51 179 1.0 3.0 0.00 0.01 0.00 86 1006.7
20260505233159 51 179 1.0 3.0 0.00 0.01 0.00 86 1006.7
20260505233059 51 179 1.0 3.0 0.00 0.01 0.00 87 1006.8
20260505232958 51 179 1.0 3.0 0.00 0.01 0.00 87 1006.8
20260505232857 51 179 1.0 3.0 0.00 0.01 0.00 87 1006.8
20260505232729 51 179 1.0 3.0 0.00 0.01 0.00 87 1006.8
20260505232656 51 179 1.0 3.0 0.00 0.01 0.00 87 1006.8
20260505232554 51 179 1.0 3.0 0.00 0.01 0.00 87 1006.8
20260505232454 51 179 1.0 3.0 0.00 0.01 0.00 87 1006.7
20260505232354 51 179 1.0 3.0 0.00 0.01 0.00 87 1006.7
20260505232254 51 179 1.0 3.0 0.00 0.01 0.00 87 1006.8
20260505232228 51 179 1.0 3.0 0.00 0.01 0.00 87 1006.7
20260505232219 51 140 0.0 3.0 0.00 0.01 0.00 87 1006.8
20260505232215 51 179 1.0 3.0 0.00 0.01 0.00 87 1006.8
20260505232211 51 179 1.0 3.0 0.00 0.01 0.00 87 1006.8
20260505231954 51 179 1.0 3.0 0.00 0.01 0.00 87 1006.8
20260505231950 51 179 0.0 3.0 0.00 0.01 0.00 87 1006.7
20260505231941 51 146 0.0 3.0 0.00 0.01 0.00 87 1006.8
20260505231654 51 140 0.0 2.0 0.00 0.01 0.00 87 1006.8
20260505231553 51 140 0.0 2.0 0.00 0.01 0.00 87 1006.7
20260505231450 51 140 0.0 2.0 0.00 0.01 0.00 87 1006.7
20260505231351 51 140 0.0 2.0 0.00 0.01 0.00 87 1006.7
20260505231229 51 139 0.0 2.0 0.00 0.01 0.00 87 1006.8
20260505231146 51 139 0.0 2.0 0.00 0.01 0.00 87 1006.8
20260505231044 51 139 0.0 2.0 0.00 0.01 0.00 87 1006.7
20260505230953 51 139 0.0 2.0 0.00 0.01 0.00 87 1006.7
20260505230949 51 135 0.0 2.0 0.00 0.01 0.00 87 1006.7
20260505230941 51 135 0.0 2.0 0.00 0.01 0.00 87 1006.7
20260505230640 51 135 0.0 2.0 0.00 0.01 0.00 87 1006.8
20260505230540 51 135 0.0 2.0 0.00 0.01 0.00 87 1006.8
20260505230452 51 135 0.0 2.0 0.00 0.01 0.00 87 1006.7
20260505230448 51 135 0.0 2.0 0.00 0.01 0.00 87 1006.8
20260505230440 51 135 0.0 2.0 0.00 0.01 0.00 87 1006.7
20260505230138 51 135 0.0 2.0 0.00 0.01 0.00 87 1006.8
20260505230038 51 135 0.0 2.0 0.00 0.01 0.00 87 1006.8
20260505225936 51 135 0.0 2.0 0.00 0.01 0.00 87 1006.8
20260505225837 51 135 0.0 2.0 0.00 0.01 0.00 87 1006.8
20260505225729 51 135 0.0 1.0 0.00 0.01 0.00 87 1006.8
20260505225632 51 135 0.0 1.0 0.00 0.01 0.00 87 1006.7
20260505225532 51 135 0.0 2.0 0.00 0.01 0.00 87 1006.7
20260505225452 51 135 0.0 2.0 0.00 0.01 0.00 87 1006.8
20260505225448 51 135 0.0 2.0 0.00 0.01 0.00 87 1006.8
20260505225440 51 135 0.0 2.0 0.00 0.01 0.00 87 1006.8
20260505225129 52 135 0.0 2.0 0.00 0.01 0.00 87 1006.8
20260505225029 52 135 0.0 2.0 0.00 0.01 0.00 87 1006.8
20260505224929 52 135 0.0 2.0 0.00 0.01 0.00 87 1006.8
20260505224829 52 135 0.0 2.0 0.00 0.01 0.00 87 1006.9
20260505224729 52 135 0.0 2.0 0.00 0.01 0.00 87 1006.9
20260505224629 52 135 0.0 2.0 0.00 0.01 0.00 87 1006.9
20260505224530 52 135 0.0 2.0 0.00 0.01 0.00 87 1006.9
20260505224452 52 135 0.0 2.0 0.00 0.01 0.00 87 1006.9
20260505224448 52 135 0.0 2.0 0.00 0.01 0.00 87 1006.9
20260505224440 52 135 0.0 2.0 0.00 0.01 0.00 87 1007.0
20260505224129 52 135 0.0 2.0 0.00 0.01 0.00 87 1007.0
20260505224029 52 135 0.0 2.0 0.00 0.01 0.00 87 1007.0
20260505223929 52 135 0.0 2.0 0.00 0.01 0.00 87 1007.0
20260505223829 52 135 0.0 1.0 0.00 0.01 0.00 87 1007.0
20260505223726 52 135 0.0 1.0 0.00 0.01 0.00 87 1007.1
20260505223629 52 135 0.0 1.0 0.00 0.01 0.00 87 1007.1
20260505223528 52 135 0.0 1.0 0.00 0.01 0.00 87 1007.0
20260505223428 52 135 0.0 1.0 0.00 0.01 0.00 87 1007.0
20260505223329 52 135 0.0 1.0 0.00 0.01 0.00 86 1007.0
20260505223226 52 135 0.0 0.0 0.00 0.01 0.00 86 1007.0
20260505223129 52 135 0.0 2.0 0.00 0.01 0.00 86 1007.0
20260505223029 52 135 0.0 2.0 0.00 0.01 0.00 86 1007.1
20260505222929 52 135 0.0 2.0 0.00 0.01 0.00 86 1007.0
20260505222829 52 135 0.0 2.0 0.00 0.01 0.00 86 1007.1
20260505222726 52 135 1.0 2.0 0.00 0.01 0.00 86 1007.1
20260505222628 52 135 1.0 3.0 0.00 0.01 0.00 86 1007.0
20260505222528 52 135 1.0 3.0 0.00 0.01 0.00 86 1007.0
20260505222428 52 135 1.0 3.0 0.00 0.01 0.00 86 1007.1
20260505222328 52 135 1.0 3.0 0.00 0.01 0.00 86 1007.0
20260505222226 52 135 1.0 3.0 0.00 0.01 0.00 86 1007.0
20260505222128 52 135 1.0 3.0 0.00 0.01 0.00 86 1007.0
20260505222026 52 135 1.0 3.0 0.00 0.01 0.00 86 1007.0
20260505221926 52 135 1.0 3.0 0.00 0.01 0.00 86 1007.0
20260505221826 52 135 1.0 3.0 0.00 0.01 0.00 86 1006.9
20260505221726 52 135 1.0 3.0 0.00 0.01 0.00 86 1006.9
20260505221626 52 136 1.0 3.0 0.00 0.01 0.00 86 1006.9
20260505221526 52 136 1.0 3.0 0.00 0.01 0.00 86 1006.9
20260505221426 52 136 1.0 3.0 0.00 0.01 0.00 86 1006.9
20260505221326 52 136 1.0 3.0 0.00 0.01 0.00 86 1006.8
20260505221226 52 136 1.0 3.0 0.00 0.01 0.00 86 1006.9
20260505221124 52 140 1.0 3.0 0.00 0.01 0.00 86 1006.9
20260505221024 52 140 1.0 4.0 0.00 0.01 0.00 86 1006.8
20260505220924 52 140 1.0 4.0 0.00 0.01 0.00 86 1006.9
20260505220822 52 140 2.0 5.0 0.00 0.01 0.00 86 1006.8
20260505220719 52 140 2.0 5.0 0.00 0.01 0.00 86 1006.9
20260505220616 52 140 2.0 5.0 0.00 0.01 0.00 86 1006.8
20260505220516 52 140 2.0 5.0 0.00 0.01 0.00 86 1006.9
20260505220416 52 140 2.0 5.0 0.00 0.01 0.00 86 1006.8
20260505220316 52 140 2.0 5.0 0.00 0.01 0.00 86 1006.7
20260505220214 52 140 2.0 5.0 0.00 0.01 0.00 86 1006.7
20260505220109 52 140 2.0 5.0 0.00 0.01 0.00 86 1006.8
20260505220009 52 138 2.0 5.0 0.00 0.01 0.00 85 1006.8
20260505215809 52 123 2.0 5.0 0.00 0.01 0.01 85 1006.8
20260505215709 53 138 2.0 5.0 0.00 0.01 0.01 85 1006.8
20260505215701 53 108 3.0 8.0 0.00 0.01 0.01 85 1006.8
20260505215645 53 111 2.0 6.0 0.00 0.01 0.01 85 1006.7
20260505215640 53 111 2.0 7.0 0.00 0.01 0.01 85 1006.8
20260505215425 53 111 2.0 8.0 0.00 0.01 0.01 85 1006.8
20260505215421 53 110 3.0 8.0 0.00 0.01 0.01 85 1006.8
20260505215413 53 108 3.0 8.0 0.00 0.01 0.01 85 1006.8